GFSSE_prec_precacc12_009.txt.gz
Total_Precipitation_Accumulation
0.25 0.07 0.30 0.28 0.20 0.24 0.18 0.07 0.05 0.05 0.01 0.00 0.00 0.00 0.00 0.00 0.00 0.00 0.00 0.00 0.00 0.00 0.00 0.00 0.00 0.00 0.00 0.00 0.00 0.00 0.00 0.00 0.00 0.00 0.01 0.01 0.00 0.00 0.00 0.05 0.16 0.01 0.00
0.10 0.09 0.18 0.15 0.11 0.14 0.10 0.06 0.07 0.07 0.03 0.00 0.00 0.00 0.00 0.00 0.00 0.00 0.00 0.00 0.00 0.00 0.00 0.00 0.00 0.00 0.00 0.00 0.00 0.00 0.00 0.00 0.03 0.03 0.13 0.06 0.00 0.00 0.03 0.11 0.15 0.01 0.02
0.02 0.02 0.06 0.11 0.16 0.19 0.07 0.06 0.05 0.04 0.03 0.00 0.00 0.01 0.00 0.00 0.00 0.00 0.00 0.00 0.00 0.00 0.00 0.00 0.00 0.00 0.00 0.00 0.00 0.00 0.00 0.03 0.03 0.02 0.08 0.11 0.00 0.02 0.03 0.05 0.03 0.10 0.02
0.00 0.00 0.00 0.10 0.11 0.12 0.04 0.04 0.03 0.03 0.00 0.00 0.00 0.00 0.00 0.00 0.00 0.00 0.00 0.00 0.00 0.00 0.00 0.00 0.00 0.00 0.00 0.00 0.01 0.00 0.00 0.01 0.03 0.04 0.12 0.03 0.01 0.00 0.04 0.04 0.03 0.10 0.10
0.00 0.00 0.00 0.06 0.11 0.09 0.03 0.03 0.02 0.02 0.00 0.00 0.00 0.00 0.00 0.00 0.00 0.00 0.00 0.00 0.00 0.00 0.00 0.00 0.00 0.00 0.00 0.00 0.02 0.01 0.00 0.01 0.06 0.11 0.02 0.02 0.06 0.00 0.01 0.01 0.03 0.03 0.08
0.01 0.01 0.00 0.01 0.03 0.01 0.01 0.01 0.02 0.03 0.00 0.00 0.00 0.00 0.00 0.00 0.00 0.00 0.00 0.00 0.00 0.00 0.00 0.00 0.00 0.00 0.00 0.00 0.03 0.01 0.00 0.03 0.18 0.21 0.10 0.01 0.03 0.00 0.00 0.01 0.06 0.01 0.02
0.01 0.00 0.00 0.01 0.03 0.02 0.02 0.01 0.02 0.02 0.00 0.00 0.00 0.00 0.00 0.00 0.00 0.00 0.00 0.00 0.00 0.00 0.03 0.02 0.01 0.00 0.00 0.00 0.00 0.00 0.03 0.15 0.48 1.02 0.65 0.21 0.01 0.01 0.00 0.00 0.00 0.00 0.02
0.01 0.00 0.00 0.02 0.02 0.04 0.02 0.00 0.01 0.00 0.00 0.00 0.00 0.00 0.00 0.00 0.00 0.00 0.00 0.00 0.00 0.01 0.06 0.01 0.00 0.00 0.00 0.00 0.00 0.00 0.03 0.20 0.56 0.53 0.61 0.28 0.08 0.00 0.00 0.00 0.00 0.00 0.00
0.00 0.00 0.00 0.00 0.00 0.03 0.03 0.00 0.00 0.00 0.00 0.00 0.00 0.00 0.00 0.00 0.00 0.00 0.00 0.00 0.01 0.03 0.05 0.00 0.00 0.00 0.00 0.00 0.00 0.00 0.01 0.14 0.42 0.99 1.21 0.51 0.20 0.00 0.00 0.00 0.00 0.01 0.00
0.00 0.00 0.00 0.00 0.00 0.01 0.00 0.00 0.00 0.01 0.00 0.00 0.00 0.00 0.00 0.00 0.00 0.01 0.01 0.04 0.00 0.00 0.00 0.00 0.00 0.00 0.00 0.00 0.00 0.00 0.00 0.06 0.27 1.00 1.02 0.21 0.33 0.20 0.00 0.00 0.01 0.03 0.01
0.00 0.00 0.00 0.00 0.05 0.05 0.00 0.01 0.00 0.00 0.00 0.00 0.00 0.00 0.00 0.04 0.04 0.05 0.10 0.07 0.00 0.00 0.00 0.00 0.00 0.00 0.00 0.00 0.01 0.01 0.01 0.02 0.04 0.08 0.09 0.05 0.09 0.40 0.30 0.02 0.01 0.02 0.03
0.00 0.00 0.00 0.00 0.00 0.00 0.00 0.00 0.00 0.00 0.00 0.00 0.00 0.00 0.00 0.11 0.09 0.13 0.15 0.08 0.07 0.05 0.00 0.01 0.03 0.01 0.00 0.00 0.00 0.00 0.00 0.00 0.00 0.03 0.01 0.05 0.10 0.11 0.50 0.53 0.04 0.05 0.04
0.00 0.00 0.00 0.00 0.01 0.01 0.01 0.00 0.00 0.00 0.00 0.00 0.00 0.00 0.01 0.10 0.24 0.29 0.30 0.69 0.20 0.13 0.23 0.08 0.05 0.01 0.00 0.00 0.00 0.00 0.00 0.00 0.01 0.01 0.02 0.02 0.05 0.08 0.09 0.39 0.57 0.20 0.02
0.00 0.00 0.00 0.00 0.00 0.02 0.01 0.00 0.00 0.00 0.00 0.00 0.00 0.00 0.01 0.03 0.09 0.32 0.46 0.31 0.16 0.21 0.09 0.09 0.04 0.00 0.00 0.00 0.00 0.00 0.00 0.00 0.00 0.00 0.02 0.02 0.02 0.03 0.10 0.14 0.60 0.60 0.05
0.00 0.00 0.00 0.00 0.00 0.01 0.01 0.00 0.00 0.00 0.00 0.00 0.00 0.00 0.00 0.01 0.11 0.27 0.17 0.10 0.06 0.08 0.06 0.04 0.02 0.00 0.00 0.00 0.00 0.00 0.00 0.00 0.00 0.00 0.00 0.01 0.01 0.01 0.05 0.19 0.13 0.33 0.12
0.00 0.00 0.00 0.00 0.00 0.01 0.01 0.01 0.00 0.00 0.00 0.00 0.00 0.00 0.00 0.01 0.07 0.08 0.07 0.01 0.00 0.00 0.01 0.00 0.00 0.00 0.00 0.00 0.00 0.00 0.00 0.00 0.00 0.00 0.00 0.01 0.00 0.01 0.03 0.17 0.16 0.13 0.30
0.00 0.00 0.00 0.00 0.00 0.00 0.02 0.02 0.00 0.00 0.00 0.00 0.00 0.00 0.00 0.01 0.02 0.01 0.06 0.03 0.06 0.01 0.00 0.01 0.02 0.01 0.00 0.00 0.00 0.00 0.00 0.00 0.00 0.00 0.00 0.00 0.00 0.01 0.03 0.07 0.20 0.21 0.15
0.00 0.00 0.00 0.00 0.00 0.00 0.02 0.02 0.00 0.00 0.00 0.00 0.00 0.00 0.00 0.00 0.01 0.02 0.09 0.07 0.12 0.01 0.01 0.02 0.04 0.01 0.00 0.00 0.00 0.00 0.00 0.00 0.00 0.00 0.00 0.00 0.00 0.01 0.01 0.03 0.08 0.15 0.10
0.00 0.00 0.00 0.00 0.00 0.00 0.00 0.01 0.00 0.01 0.03 0.01 0.01 0.00 0.03 0.07 0.06 0.04 0.07 0.07 0.06 0.03 0.04 0.02 0.01 0.01 0.00 0.00 0.00 0.00 0.00 0.00 0.00 0.00 0.00 0.00 0.00 0.00 0.00 0.01 0.03 0.04 0.05
0.00 0.00 0.00 0.00 0.00 0.00 0.07 0.11 0.07 0.04 0.00 0.00 0.00 0.02 0.06 0.04 0.05 0.09 0.05 0.07 0.01 0.03 0.04 0.05 0.01 0.00 0.00 0.00 0.00 0.00 0.00 0.00 0.00 0.00 0.00 0.00 0.00 0.00 0.00 0.00 0.02 0.03 0.06
0.00 0.00 0.00 0.00 0.00 0.01 0.06 0.03 0.03 0.01 0.00 0.00 0.00 0.01 0.02 0.02 0.11 0.09 0.03 0.08 0.04 0.04 0.03 0.00 0.00 0.00 0.00 0.00 0.00 0.00 0.00 0.00 0.00 0.00 0.00 0.00 0.00 0.00 0.00 0.00 0.00 0.04 0.12
0.00 0.00 0.00 0.00 0.00 0.00 0.01 0.01 0.01 0.01 0.00 0.00 0.00 0.01 0.01 0.02 0.04 0.03 0.04 0.04 0.03 0.01 0.00 0.00 0.00 0.00 0.00 0.00 0.00 0.00 0.01 0.02 0.00 0.00 0.00 0.00 0.00 0.00 0.00 0.00 0.00 0.00 0.03
0.00 0.00 0.00 0.00 0.00 0.01 0.02 0.02 0.07 0.08 0.03 0.01 0.00 0.03 0.01 0.02 0.02 0.04 0.06 0.03 0.04 0.00 0.00 0.00 0.00 0.00 0.00 0.00 0.00 0.00 0.01 0.03 0.01 0.00 0.00 0.00 0.00 0.00 0.00 0.00 0.00 0.00 0.00
0.00 0.00 0.00 0.00 0.00 0.01 0.03 0.01 0.05 0.02 0.01 0.00 0.00 0.00 0.01 0.01 0.01 0.01 0.02 0.02 0.01 0.00 0.00 0.00 0.00 0.00 0.00 0.00 0.00 0.00 0.00 0.00 0.00 0.01 0.00 0.00 0.00 0.00 0.00 0.00 0.00 0.00 0.00
0.00 0.00 0.00 0.00 0.00 0.01 0.02 0.01 0.04 0.01 0.00 0.00 0.00 0.00 0.01 0.03 0.00 0.00 0.01 0.01 0.00 0.00 0.00 0.00 0.00 0.00 0.00 0.00 0.00 0.00 0.00 0.00 0.00 0.00 0.00 0.00 0.00 0.00 0.00 0.00 0.00 0.00 0.00
0.00 0.00 0.00 0.00 0.00 0.00 0.01 0.01 0.04 0.03 0.00 0.00 0.00 0.00 0.00 0.00 0.00 0.00 0.00 0.01 0.00 0.00 0.00 0.00 0.00 0.00 0.00 0.00 0.00 0.00 0.00 0.00 0.00 0.00 0.00 0.00 0.00 0.00 0.00 0.00 0.00 0.00 0.00

GFSSE_prec_precacc12_015.txt.gz
Total_Precipitation_Accumulation
0.12 0.09 0.39 0.34 0.34 0.37 0.25 0.06 0.02 0.02 0.00 0.00 0.00 0.00 0.00 0.00 0.00 0.00 0.00 0.00 0.00 0.00 0.00 0.00 0.00 0.03 0.09 0.11 0.07 0.04 0.03 0.04 0.04 0.00 0.01 0.01 0.03 0.04 0.03 0.04 0.04 0.01 0.00
0.04 0.08 0.22 0.26 0.24 0.11 0.05 0.02 0.01 0.02 0.00 0.00 0.00 0.00 0.00 0.00 0.00 0.00 0.00 0.00 0.00 0.00 0.00 0.00 0.00 0.02 0.05 0.05 0.07 0.08 0.04 0.10 0.16 0.02 0.14 0.13 0.15 0.09 0.03 0.05 0.02 0.00 0.00
0.01 0.04 0.16 0.21 0.15 0.05 0.03 0.01 0.01 0.01 0.01 0.00 0.00 0.01 0.00 0.00 0.00 0.00 0.00 0.00 0.00 0.00 0.00 0.00 0.00 0.01 0.01 0.00 0.01 0.06 0.08 0.09 0.12 0.06 0.08 0.15 0.07 0.10 0.02 0.04 0.02 0.07 0.11
0.00 0.00 0.04 0.22 0.11 0.04 0.01 0.00 0.00 0.01 0.00 0.00 0.00 0.00 0.00 0.00 0.00 0.00 0.00 0.00 0.00 0.00 0.00 0.00 0.00 0.00 0.00 0.04 0.05 0.09 0.10 0.12 0.12 0.09 0.12 0.03 0.03 0.05 0.01 0.01 0.03 0.03 0.08
0.00 0.00 0.02 0.05 0.07 0.03 0.01 0.00 0.00 0.01 0.00 0.00 0.00 0.00 0.00 0.00 0.00 0.00 0.00 0.00 0.00 0.00 0.00 0.00 0.00 0.00 0.05 0.11 0.14 0.16 0.22 0.31 0.21 0.14 0.02 0.01 0.04 0.01 0.00 0.02 0.01 0.02 0.02
0.01 0.00 0.02 0.02 0.01 0.01 0.01 0.01 0.02 0.03 0.00 0.00 0.00 0.00 0.00 0.00 0.00 0.00 0.00 0.00 0.00 0.00 0.00 0.00 0.00 0.00 0.07 0.13 0.13 0.20 0.32 0.38 0.44 0.19 0.10 0.02 0.02 0.00 0.00 0.02 0.08 0.04 0.03
0.01 0.00 0.00 0.03 0.03 0.02 0.02 0.01 0.02 0.02 0.00 0.00 0.00 0.00 0.00 0.00 0.00 0.00 0.00 0.00 0.00 0.00 0.00 0.00 0.00 0.01 0.03 0.10 0.14 0.15 0.22 0.70 1.61 1.60 0.78 0.22 0.01 0.02 0.00 0.02 0.01 0.00 0.02
0.00 0.00 0.00 0.02 0.01 0.02 0.02 0.00 0.01 0.00 0.00 0.00 0.00 0.00 0.00 0.00 0.00 0.00 0.00 0.00 0.00 0.00 0.00 0.00 0.00 0.04 0.07 0.07 0.11 0.13 0.12 0.34 0.74 0.99 0.90 0.31 0.05 0.02 0.00 0.00 0.00 0.01 0.02
0.00 0.00 0.00 0.00 0.00 0.01 0.03 0.00 0.00 0.00 0.00 0.00 0.00 0.00 0.00 0.00 0.01 0.00 0.00 0.00 0.00 0.00 0.00 0.00 0.00 0.01 0.05 0.08 0.13 0.16 0.09 0.15 0.42 0.98 1.24 0.49 0.20 0.02 0.00 0.00 0.00 0.01 0.00
0.00 0.01 0.00 0.00 0.00 0.00 0.00 0.00 0.00 0.00 0.00 0.00 0.00 0.00 0.00 0.00 0.02 0.00 0.00 0.00 0.00 0.00 0.00 0.00 0.00 0.01 0.03 0.08 0.09 0.10 0.10 0.09 0.27 1.00 1.02 0.19 0.38 0.23 0.00 0.00 0.01 0.04 0.00
0.00 0.01 0.00 0.00 0.00 0.02 0.00 0.00 0.00 0.00 0.00 0.00 0.00 0.00 0.00 0.04 0.05 0.06 0.11 0.07 0.00 0.00 0.00 0.00 0.00 0.01 0.04 0.07 0.09 0.07 0.08 0.05 0.04 0.08 0.08 0.09 0.24 0.44 0.28 0.01 0.01 0.03 0.03
0.00 0.00 0.00 0.00 0.00 0.00 0.00 0.00 0.00 0.00 0.00 0.00 0.00 0.00 0.00 0.12 0.10 0.13 0.16 0.08 0.07 0.05 0.01 0.04 0.05 0.05 0.02 0.01 0.01 0.01 0.00 0.00 0.00 0.04 0.01 0.07 0.21 0.26 0.41 0.40 0.04 0.02 0.04
0.00 0.00 0.00 0.00 0.00 0.01 0.00 0.00 0.00 0.00 0.00 0.00 0.00 0.01 0.02 0.13 0.24 0.29 0.28 0.69 0.24 0.13 0.21 0.09 0.06 0.02 0.00 0.00 0.00 0.00 0.00 0.00 0.01 0.01 0.01 0.05 0.09 0.15 0.19 0.34 0.53 0.19 0.03
0.00 0.00 0.00 0.00 0.00 0.01 0.00 0.00 0.00 0.00 0.00 0.00 0.00 0.00 0.02 0.05 0.10 0.32 0.46 0.31 0.17 0.21 0.09 0.09 0.04 0.01 0.00 0.00 0.00 0.00 0.00 0.00 0.00 0.00 0.01 0.02 0.03 0.07 0.12 0.37 0.50 0.50 0.05
0.00 0.00 0.00 0.00 0.00 0.01 0.00 0.00 0.00 0.00 0.00 0.00 0.00 0.00 0.01 0.02 0.09 0.25 0.14 0.10 0.05 0.08 0.06 0.04 0.03 0.01 0.00 0.00 0.00 0.00 0.00 0.00 0.00 0.00 0.00 0.02 0.02 0.04 0.09 0.30 0.16 0.29 0.11
0.00 0.00 0.00 0.00 0.00 0.00 0.00 0.01 0.00 0.00 0.00 0.00 0.00 0.00 0.00 0.01 0.02 0.08 0.09 0.03 0.03 0.02 0.00 0.00 0.00 0.00 0.00 0.00 0.00 0.00 0.00 0.00 0.00 0.00 0.00 0.01 0.02 0.03 0.08 0.30 0.26 0.12 0.27
0.00 0.00 0.00 0.00 0.00 0.00 0.01 0.01 0.00 0.00 0.00 0.00 0.00 0.00 0.00 0.00 0.01 0.01 0.06 0.03 0.09 0.08 0.06 0.01 0.02 0.01 0.00 0.00 0.00 0.00 0.00 0.00 0.00 0.00 0.00 0.00 0.01 0.02 0.04 0.13 0.31 0.25 0.14
0.00 0.00 0.00 0.00 0.00 0.00 0.00 0.01 0.00 0.00 0.00 0.00 0.00 0.00 0.00 0.00 0.01 0.03 0.08 0.07 0.12 0.01 0.03 0.01 0.03 0.01 0.00 0.00 0.00 0.00 0.00 0.00 0.00 0.00 0.00 0.00 0.00 0.00 0.02 0.06 0.14 0.23 0.19
0.00 0.00 0.00 0.00 0.00 0.00 0.00 0.01 0.00 0.00 0.00 0.00 0.00 0.00 0.03 0.07 0.07 0.09 0.07 0.07 0.04 0.02 0.01 0.01 0.01 0.01 0.00 0.00 0.00 0.00 0.00 0.00 0.00 0.00 0.00 0.00 0.00 0.00 0.00 0.01 0.03 0.04 0.06
0.00 0.00 0.00 0.00 0.00 0.00 0.01 0.03 0.02 0.01 0.00 0.00 0.00 0.00 0.02 0.01 0.06 0.10 0.03 0.05 0.01 0.02 0.03 0.02 0.01 0.00 0.00 0.00 0.00 0.00 0.00 0.00 0.00 0.00 0.00 0.00 0.00 0.00 0.00 0.00 0.02 0.04 0.07
0.00 0.00 0.00 0.00 0.00 0.00 0.00 0.00 0.02 0.00 0.00 0.00 0.00 0.00 0.00 0.01 0.06 0.03 0.03 0.07 0.01 0.03 0.02 0.00 0.00 0.00 0.00 0.00 0.00 0.00 0.00 0.00 0.00 0.00 0.00 0.00 0.00 0.00 0.00 0.00 0.00 0.04 0.09
0.00 0.00 0.00 0.00 0.00 0.00 0.00 0.00 0.01 0.01 0.00 0.00 0.00 0.00 0.01 0.02 0.02 0.01 0.03 0.03 0.01 0.01 0.00 0.00 0.00 0.00 0.00 0.00 0.00 0.00 0.01 0.01 0.00 0.00 0.00 0.00 0.00 0.00 0.00 0.00 0.00 0.00 0.01
0.00 0.00 0.00 0.00 0.00 0.00 0.00 0.00 0.03 0.05 0.01 0.01 0.00 0.01 0.00 0.00 0.01 0.01 0.03 0.02 0.03 0.00 0.00 0.00 0.00 0.00 0.00 0.00 0.00 0.00 0.01 0.02 0.01 0.00 0.00 0.00 0.00 0.00 0.00 0.00 0.00 0.00 0.00
0.00 0.00 0.00 0.00 0.00 0.00 0.00 0.00 0.01 0.00 0.01 0.00 0.00 0.00 0.00 0.00 0.00 0.00 0.00 0.02 0.01 0.00 0.00 0.00 0.00 0.00 0.00 0.00 0.00 0.00 0.00 0.00 0.00 0.01 0.00 0.00 0.00 0.00 0.00 0.00 0.00 0.00 0.00
0.00 0.00 0.00 0.00 0.00 0.00 0.00 0.00 0.02 0.00 0.00 0.00 0.00 0.00 0.01 0.02 0.00 0.00 0.01 0.00 0.00 0.00 0.00 0.00 0.00 0.00 0.00 0.00 0.00 0.00 0.00 0.00 0.00 0.00 0.00 0.00 0.00 0.00 0.00 0.00 0.00 0.00 0.00
0.00 0.00 0.00 0.00 0.00 0.00 0.01 0.00 0.02 0.01 0.00 0.00 0.00 0.00 0.00 0.00 0.00 0.00 0.00 0.00 0.00 0.00 0.00 0.00 0.00 0.00 0.00 0.00 0.00 0.00 0.00 0.00 0.00 0.00 0.00 0.00 0.00 0.00 0.00 0.00 0.00 0.00 0.00

GFSSE_prec_precacc12_021.txt.gz
Total_Precipitation_Accumulation
0.08 0.20 0.55 0.55 0.35 0.30 0.19 0.04 0.05 0.04 0.03 0.00 0.00 0.00 0.00 0.00 0.00 0.00 0.00 0.00 0.00 0.02 0.01 0.00 0.00 0.03 0.09 0.11 0.07 0.04 0.03 0.04 0.04 0.00 0.00 0.00 0.04 0.05 0.04 0.01 0.01 0.01 0.02
0.00 0.02 0.31 0.51 0.45 0.18 0.05 0.02 0.02 0.02 0.01 0.00 0.00 0.00 0.00 0.00 0.00 0.00 0.00 0.00 0.00 0.03 0.01 0.00 0.00 0.02 0.06 0.06 0.07 0.09 0.05 0.10 0.17 0.01 0.02 0.14 0.21 0.19 0.03 0.00 0.00 0.02 0.03
0.00 0.02 0.21 0.41 0.35 0.07 0.02 0.01 0.00 0.00 0.00 0.00 0.00 0.00 0.00 0.00 0.00 0.00 0.00 0.01 0.02 0.01 0.02 0.01 0.00 0.02 0.02 0.02 0.03 0.06 0.09 0.11 0.14 0.07 0.01 0.09 0.08 0.13 0.02 0.01 0.01 0.06 0.11
0.00 0.01 0.06 0.47 0.22 0.02 0.01 0.00 0.00 0.00 0.00 0.00 0.00 0.00 0.00 0.00 0.00 0.00 0.00 0.00 0.00 0.00 0.02 0.07 0.06 0.04 0.06 0.09 0.09 0.10 0.14 0.16 0.13 0.06 0.01 0.01 0.04 0.06 0.01 0.01 0.03 0.05 0.09
0.00 0.00 0.08 0.15 0.07 0.00 0.00 0.00 0.00 0.00 0.00 0.00 0.00 0.00 0.00 0.00 0.00 0.00 0.00 0.00 0.01 0.01 0.02 0.00 0.02 0.07 0.10 0.11 0.17 0.26 0.36 0.32 0.18 0.09 0.01 0.02 0.02 0.02 0.01 0.02 0.01 0.02 0.02
0.00 0.01 0.05 0.04 0.00 0.00 0.00 0.00 0.00 0.00 0.00 0.00 0.00 0.00 0.00 0.00 0.00 0.01 0.05 0.02 0.01 0.01 0.00 0.00 0.00 0.01 0.10 0.14 0.22 0.37 0.49 0.40 0.30 0.08 0.01 0.02 0.08 0.03 0.00 0.03 0.06 0.04 0.03
0.00 0.00 0.01 0.05 0.01 0.00 0.00 0.00 0.00 0.00 0.00 0.00 0.00 0.00 0.00 0.00 0.00 0.00 0.01 0.03 0.02 0.01 0.02 0.00 0.00 0.02 0.06 0.17 0.19 0.24 0.28 0.58 1.23 0.62 0.17 0.03 0.02 0.06 0.02 0.07 0.02 0.01 0.01
0.00 0.00 0.00 0.01 0.00 0.00 0.00 0.00 0.00 0.00 0.00 0.00 0.00 0.00 0.00 0.00 0.00 0.00 0.00 0.01 0.02 0.00 0.00 0.00 0.01 0.04 0.08 0.10 0.15 0.16 0.09 0.15 0.25 0.47 0.32 0.07 0.03 0.10 0.09 0.02 0.02 0.01 0.02
0.00 0.00 0.00 0.00 0.00 0.00 0.00 0.00 0.00 0.00 0.00 0.00 0.00 0.00 0.00 0.00 0.01 0.00 0.00 0.00 0.00 0.00 0.01 0.01 0.02 0.03 0.05 0.09 0.14 0.17 0.08 0.01 0.00 0.00 0.03 0.04 0.04 0.06 0.05 0.00 0.02 0.01 0.01
0.00 0.01 0.00 0.00 0.00 0.00 0.00 0.00 0.00 0.00 0.00 0.00 0.00 0.00 0.02 0.05 0.02 0.01 0.00 0.00 0.02 0.00 0.02 0.03 0.04 0.06 0.05 0.08 0.10 0.12 0.11 0.03 0.02 0.02 0.02 0.01 0.13 0.10 0.03 0.03 0.08 0.05 0.00
0.00 0.00 0.00 0.00 0.00 0.00 0.00 0.00 0.00 0.00 0.00 0.00 0.00 0.00 0.02 0.09 0.09 0.12 0.04 0.00 0.05 0.05 0.02 0.04 0.04 0.05 0.06 0.07 0.09 0.08 0.10 0.03 0.00 0.00 0.00 0.07 0.35 0.21 0.03 0.04 0.07 0.01 0.01
0.00 0.00 0.00 0.00 0.00 0.00 0.00 0.00 0.00 0.00 0.00 0.00 0.00 0.00 0.00 0.05 0.03 0.01 0.01 0.00 0.01 0.04 0.05 0.08 0.08 0.08 0.04 0.01 0.00 0.00 0.01 0.00 0.00 0.00 0.00 0.04 0.28 0.49 0.20 0.03 0.06 0.07 0.02
0.00 0.00 0.00 0.00 0.00 0.00 0.00 0.00 0.00 0.00 0.00 0.00 0.00 0.00 0.01 0.03 0.00 0.00 0.00 0.00 0.04 0.00 0.00 0.00 0.01 0.00 0.00 0.00 0.00 0.00 0.00 0.00 0.00 0.00 0.00 0.03 0.08 0.24 0.51 0.34 0.02 0.08 0.05
0.00 0.00 0.00 0.00 0.00 0.00 0.00 0.00 0.00 0.00 0.00 0.00 0.00 0.00 0.01 0.02 0.00 0.00 0.00 0.00 0.02 0.00 0.00 0.00 0.00 0.03 0.02 0.00 0.00 0.00 0.00 0.00 0.00 0.00 0.00 0.03 0.04 0.10 0.15 0.47 0.16 0.05 0.05
0.00 0.00 0.00 0.00 0.00 0.00 0.00 0.00 0.00 0.00 0.00 0.00 0.00 0.00 0.01 0.01 0.00 0.00 0.00 0.00 0.00 0.00 0.00 0.00 0.00 0.05 0.01 0.00 0.00 0.00 0.00 0.00 0.00 0.00 0.00 0.02 0.02 0.05 0.07 0.20 0.21 0.09 0.08
0.00 0.00 0.00 0.00 0.00 0.00 0.00 0.00 0.00 0.00 0.00 0.00 0.00 0.00 0.00 0.01 0.01 0.00 0.03 0.02 0.04 0.06 0.02 0.00 0.01 0.00 0.00 0.00 0.00 0.00 0.00 0.00 0.00 0.00 0.00 0.01 0.03 0.03 0.07 0.25 0.28 0.16 0.16
0.00 0.00 0.00 0.00 0.00 0.00 0.00 0.00 0.00 0.00 0.00 0.00 0.00 0.00 0.00 0.01 0.02 0.00 0.01 0.00 0.05 0.08 0.09 0.04 0.01 0.00 0.00 0.00 0.00 0.00 0.00 0.00 0.00 0.00 0.00 0.00 0.01 0.03 0.04 0.14 0.30 0.13 0.07
0.00 0.00 0.00 0.00 0.00 0.00 0.00 0.00 0.00 0.00 0.00 0.00 0.00 0.00 0.00 0.00 0.00 0.01 0.00 0.00 0.00 0.01 0.10 0.08 0.05 0.02 0.00 0.00 0.00 0.00 0.00 0.00 0.00 0.00 0.00 0.00 0.00 0.00 0.02 0.06 0.13 0.22 0.18
0.00 0.00 0.00 0.00 0.00 0.00 0.00 0.00 0.00 0.00 0.00 0.00 0.00 0.00 0.00 0.00 0.05 0.20 0.05 0.00 0.00 0.00 0.03 0.04 0.01 0.00 0.00 0.00 0.00 0.00 0.00 0.00 0.00 0.00 0.00 0.00 0.00 0.00 0.00 0.01 0.03 0.06 0.08
0.00 0.00 0.00 0.00 0.00 0.00 0.00 0.00 0.00 0.00 0.00 0.00 0.00 0.02 0.01 0.00 0.07 0.04 0.01 0.01 0.02 0.00 0.00 0.00 0.01 0.00 0.00 0.00 0.00 0.00 0.00 0.00 0.00 0.00 0.00 0.00 0.00 0.00 0.00 0.00 0.00 0.01 0.03
0.00 0.00 0.00 0.00 0.00 0.00 0.00 0.00 0.00 0.00 0.00 0.00 0.00 0.00 0.00 0.00 0.00 0.00 0.00 0.02 0.03 0.00 0.01 0.01 0.00 0.00 0.00 0.00 0.00 0.00 0.00 0.00 0.00 0.00 0.00 0.00 0.00 0.00 0.00 0.00 0.01 0.00 0.02
0.00 0.00 0.00 0.00 0.00 0.00 0.00 0.00 0.00 0.00 0.00 0.00 0.00 0.00 0.00 0.00 0.00 0.00 0.00 0.01 0.01 0.00 0.00 0.00 0.00 0.00 0.00 0.00 0.00 0.00 0.00 0.00 0.00 0.00 0.00 0.00 0.00 0.00 0.00 0.00 0.00 0.00 0.00
0.00 0.00 0.00 0.00 0.00 0.00 0.00 0.00 0.00 0.00 0.00 0.00 0.00 0.00 0.00 0.00 0.00 0.00 0.00 0.00 0.00 0.00 0.00 0.00 0.00 0.00 0.00 0.00 0.00 0.00 0.00 0.00 0.00 0.00 0.00 0.00 0.00 0.00 0.00 0.00 0.00 0.00 0.00
0.00 0.00 0.00 0.00 0.00 0.00 0.00 0.00 0.00 0.00 0.00 0.00 0.00 0.00 0.00 0.00 0.00 0.00 0.00 0.00 0.00 0.00 0.00 0.00 0.00 0.00 0.00 0.00 0.00 0.00 0.00 0.00 0.00 0.00 0.00 0.00 0.00 0.00 0.00 0.00 0.00 0.00 0.00
0.00 0.00 0.00 0.00 0.00 0.00 0.00 0.00 0.00 0.00 0.00 0.00 0.00 0.00 0.00 0.00 0.00 0.00 0.00 0.00 0.00 0.00 0.00 0.00 0.00 0.00 0.00 0.00 0.00 0.00 0.00 0.00 0.00 0.00 0.00 0.00 0.00 0.00 0.00 0.00 0.00 0.00 0.00
0.00 0.00 0.00 0.00 0.00 0.00 0.00 0.00 0.00 0.00 0.00 0.00 0.00 0.00 0.00 0.00 0.00 0.00 0.00 0.00 0.00 0.00 0.00 0.00 0.00 0.00 0.00 0.00 0.00 0.00 0.00 0.00 0.00 0.00 0.00 0.00 0.00 0.00 0.00 0.00 0.00 0.00 0.00

GFSSE_prec_precacc12_024.txt.gz
Total_Precipitation_Accumulation
0.31 0.40 0.60 0.58 0.27 0.25 0.17 0.04 0.05 0.05 0.04 0.01 0.00 0.00 0.00 0.00 0.00 0.00 0.01 0.05 0.09 0.09 0.04 0.02 0.02 0.03 0.08 0.06 0.03 0.02 0.02 0.01 0.00 0.00 0.00 0.01 0.04 0.05 0.04 0.01 0.02 0.01 0.02
0.20 0.14 0.44 0.47 0.37 0.18 0.05 0.02 0.03 0.03 0.01 0.00 0.00 0.00 0.00 0.00 0.00 0.00 0.00 0.02 0.04 0.12 0.07 0.01 0.00 0.02 0.06 0.05 0.02 0.00 0.02 0.06 0.09 0.04 0.07 0.18 0.20 0.15 0.02 0.00 0.01 0.02 0.04
0.04 0.03 0.20 0.37 0.35 0.08 0.02 0.02 0.00 0.00 0.00 0.00 0.00 0.00 0.00 0.01 0.00 0.01 0.03 0.02 0.02 0.02 0.03 0.01 0.01 0.02 0.02 0.04 0.06 0.08 0.09 0.10 0.11 0.06 0.01 0.09 0.09 0.04 0.01 0.00 0.01 0.06 0.07
0.00 0.01 0.04 0.43 0.24 0.03 0.01 0.00 0.00 0.00 0.00 0.00 0.00 0.00 0.00 0.02 0.03 0.00 0.00 0.01 0.01 0.01 0.02 0.07 0.05 0.04 0.06 0.09 0.11 0.14 0.19 0.16 0.11 0.02 0.02 0.01 0.04 0.04 0.02 0.02 0.02 0.05 0.08
0.00 0.00 0.07 0.16 0.08 0.00 0.00 0.00 0.00 0.00 0.00 0.00 0.00 0.00 0.01 0.02 0.00 0.00 0.01 0.04 0.05 0.01 0.02 0.00 0.02 0.07 0.10 0.11 0.23 0.25 0.30 0.20 0.07 0.02 0.03 0.08 0.04 0.02 0.04 0.07 0.02 0.03 0.01
0.00 0.01 0.05 0.05 0.00 0.00 0.00 0.00 0.00 0.00 0.00 0.00 0.00 0.00 0.00 0.00 0.00 0.02 0.07 0.08 0.07 0.02 0.00 0.00 0.00 0.01 0.10 0.15 0.22 0.30 0.29 0.20 0.08 0.00 0.00 0.05 0.21 0.04 0.02 0.07 0.02 0.03 0.02
0.00 0.00 0.01 0.06 0.01 0.00 0.00 0.00 0.00 0.00 0.00 0.00 0.00 0.00 0.00 0.00 0.01 0.05 0.06 0.05 0.06 0.02 0.02 0.00 0.00 0.02 0.06 0.18 0.16 0.18 0.13 0.12 0.10 0.01 0.00 0.02 0.07 0.07 0.04 0.13 0.05 0.02 0.02
0.00 0.00 0.00 0.01 0.00 0.02 0.02 0.00 0.00 0.00 0.00 0.00 0.00 0.00 0.00 0.00 0.00 0.00 0.01 0.01 0.02 0.00 0.00 0.00 0.01 0.04 0.08 0.10 0.10 0.07 0.00 0.00 0.00 0.01 0.00 0.00 0.02 0.13 0.13 0.06 0.06 0.03 0.03
0.00 0.00 0.00 0.00 0.00 0.02 0.01 0.00 0.00 0.00 0.00 0.00 0.00 0.00 0.00 0.00 0.01 0.00 0.00 0.00 0.00 0.00 0.01 0.01 0.02 0.03 0.06 0.09 0.12 0.10 0.02 0.01 0.02 0.07 0.00 0.00 0.03 0.09 0.07 0.01 0.02 0.02 0.02
0.00 0.01 0.00 0.00 0.00 0.00 0.00 0.00 0.00 0.00 0.00 0.00 0.00 0.00 0.02 0.05 0.02 0.01 0.01 0.01 0.03 0.00 0.02 0.03 0.04 0.06 0.05 0.06 0.08 0.08 0.06 0.01 0.01 0.04 0.00 0.01 0.07 0.12 0.05 0.03 0.08 0.04 0.00
0.00 0.00 0.00 0.00 0.00 0.00 0.00 0.00 0.00 0.00 0.00 0.00 0.00 0.00 0.02 0.10 0.08 0.11 0.04 0.00 0.05 0.05 0.02 0.04 0.04 0.05 0.06 0.05 0.04 0.04 0.07 0.02 0.00 0.00 0.00 0.04 0.30 0.15 0.04 0.04 0.07 0.01 0.01
0.00 0.00 0.00 0.00 0.00 0.00 0.00 0.00 0.00 0.00 0.00 0.00 0.00 0.00 0.00 0.04 0.02 0.01 0.00 0.00 0.00 0.04 0.06 0.07 0.08 0.07 0.04 0.00 0.00 0.00 0.00 0.00 0.00 0.00 0.00 0.02 0.24 0.47 0.23 0.05 0.10 0.09 0.02
0.00 0.00 0.00 0.00 0.00 0.00 0.00 0.00 0.00 0.00 0.00 0.00 0.00 0.00 0.00 0.00 0.00 0.00 0.00 0.00 0.00 0.00 0.00 0.00 0.01 0.01 0.00 0.00 0.00 0.00 0.00 0.00 0.00 0.00 0.00 0.01 0.07 0.26 0.53 0.33 0.04 0.08 0.06
0.00 0.00 0.00 0.00 0.00 0.00 0.00 0.00 0.00 0.00 0.00 0.00 0.00 0.00 0.00 0.01 0.00 0.00 0.00 0.00 0.00 0.00 0.00 0.00 0.01 0.06 0.04 0.00 0.00 0.00 0.00 0.00 0.00 0.00 0.00 0.03 0.03 0.09 0.15 0.44 0.15 0.05 0.05
0.00 0.00 0.00 0.00 0.00 0.00 0.00 0.00 0.00 0.00 0.00 0.00 0.00 0.00 0.00 0.00 0.01 0.00 0.00 0.00 0.00 0.00 0.00 0.04 0.08 0.09 0.02 0.00 0.00 0.00 0.00 0.00 0.00 0.00 0.00 0.01 0.02 0.04 0.06 0.19 0.21 0.10 0.08
0.00 0.00 0.00 0.00 0.00 0.00 0.00 0.00 0.00 0.00 0.00 0.00 0.00 0.00 0.00 0.01 0.00 0.00 0.00 0.00 0.01 0.05 0.06 0.09 0.08 0.03 0.00 0.00 0.00 0.00 0.00 0.00 0.00 0.00 0.00 0.00 0.02 0.02 0.06 0.22 0.22 0.17 0.17
0.00 0.00 0.00 0.00 0.00 0.00 0.00 0.00 0.00 0.00 0.00 0.00 0.00 0.00 0.00 0.01 0.02 0.02 0.01 0.00 0.01 0.10 0.12 0.10 0.06 0.02 0.00 0.00 0.00 0.00 0.00 0.00 0.00 0.00 0.00 0.00 0.00 0.02 0.04 0.12 0.24 0.11 0.09
0.00 0.00 0.00 0.00 0.00 0.00 0.00 0.00 0.00 0.00 0.00 0.00 0.00 0.00 0.00 0.00 0.00 0.00 0.08 0.07 0.02 0.11 0.12 0.10 0.08 0.06 0.00 0.00 0.00 0.00 0.00 0.00 0.00 0.00 0.00 0.00 0.00 0.00 0.01 0.05 0.10 0.20 0.11
0.00 0.00 0.00 0.00 0.00 0.00 0.00 0.00 0.00 0.00 0.00 0.00 0.00 0.00 0.00 0.00 0.05 0.19 0.13 0.09 0.04 0.03 0.08 0.08 0.07 0.03 0.00 0.00 0.00 0.00 0.00 0.00 0.00 0.00 0.00 0.00 0.00 0.00 0.00 0.00 0.03 0.05 0.07
0.00 0.00 0.00 0.00 0.00 0.00 0.00 0.00 0.00 0.00 0.00 0.00 0.00 0.02 0.01 0.00 0.07 0.04 0.05 0.14 0.05 0.02 0.04 0.08 0.06 0.00 0.00 0.00 0.00 0.00 0.00 0.00 0.00 0.00 0.00 0.00 0.00 0.00 0.00 0.00 0.00 0.01 0.02
0.00 0.00 0.00 0.00 0.00 0.00 0.00 0.00 0.00 0.00 0.00 0.00 0.00 0.00 0.00 0.00 0.00 0.00 0.02 0.13 0.05 0.04 0.07 0.08 0.04 0.00 0.00 0.00 0.00 0.00 0.00 0.00 0.00 0.00 0.00 0.00 0.00 0.00 0.00 0.00 0.01 0.00 0.02
0.00 0.00 0.00 0.00 0.00 0.00 0.00 0.00 0.00 0.00 0.00 0.00 0.00 0.00 0.00 0.00 0.00 0.00 0.08 0.11 0.02 0.05 0.07 0.06 0.05 0.00 0.00 0.00 0.00 0.00 0.00 0.00 0.00 0.00 0.00 0.00 0.00 0.00 0.00 0.00 0.00 0.00 0.00
0.00 0.00 0.00 0.00 0.00 0.00 0.00 0.00 0.00 0.00 0.00 0.00 0.00 0.00 0.00 0.00 0.00 0.00 0.04 0.07 0.07 0.02 0.06 0.04 0.03 0.01 0.00 0.00 0.00 0.00 0.00 0.00 0.00 0.00 0.00 0.00 0.00 0.00 0.00 0.00 0.00 0.00 0.00
0.00 0.00 0.00 0.00 0.00 0.00 0.00 0.00 0.00 0.00 0.00 0.00 0.00 0.00 0.00 0.00 0.00 0.00 0.00 0.04 0.03 0.01 0.04 0.04 0.01 0.00 0.00 0.00 0.00 0.00 0.00 0.00 0.00 0.00 0.00 0.00 0.00 0.00 0.00 0.00 0.00 0.00 0.00
0.00 0.00 0.00 0.00 0.00 0.00 0.00 0.00 0.00 0.00 0.00 0.00 0.00 0.00 0.00 0.00 0.00 0.00 0.01 0.06 0.01 0.01 0.00 0.00 0.00 0.00 0.00 0.00 0.00 0.00 0.00 0.00 0.00 0.00 0.00 0.00 0.00 0.00 0.00 0.00 0.00 0.00 0.00
0.00 0.00 0.00 0.00 0.00 0.00 0.00 0.00 0.00 0.00 0.00 0.00 0.00 0.00 0.00 0.00 0.00 0.00 0.01 0.02 0.02 0.00 0.00 0.00 0.00 0.00 0.00 0.00 0.00 0.00 0.00 0.00 0.00 0.00 0.00 0.00 0.00 0.00 0.00 0.00 0.00 0.00 0.00

GFSSE_prec_precacc12_027.txt.gz
Total_Precipitation_Accumulation
0.33 0.37 0.49 0.45 0.15 0.13 0.09 0.03 0.05 0.05 0.03 0.01 0.00 0.00 0.00 0.00 0.00 0.00 0.02 0.06 0.10 0.12 0.04 0.02 0.02 0.00 0.00 0.00 0.00 0.00 0.00 0.00 0.00 0.00 0.00 0.01 0.02 0.02 0.01 0.01 0.06 0.02 0.03
0.49 0.15 0.41 0.36 0.25 0.15 0.05 0.02 0.03 0.03 0.01 0.00 0.00 0.00 0.00 0.00 0.01 0.00 0.01 0.05 0.05 0.12 0.07 0.01 0.00 0.00 0.00 0.01 0.01 0.01 0.01 0.00 0.00 0.03 0.10 0.11 0.09 0.11 0.01 0.01 0.09 0.02 0.04
0.22 0.03 0.15 0.29 0.28 0.08 0.02 0.02 0.01 0.00 0.00 0.00 0.00 0.00 0.01 0.03 0.02 0.06 0.07 0.04 0.03 0.02 0.03 0.03 0.01 0.01 0.01 0.05 0.12 0.08 0.04 0.02 0.02 0.03 0.08 0.04 0.03 0.03 0.01 0.05 0.05 0.02 0.03
0.01 0.01 0.03 0.38 0.19 0.02 0.01 0.01 0.00 0.00 0.00 0.00 0.00 0.00 0.02 0.04 0.05 0.01 0.01 0.02 0.01 0.01 0.02 0.07 0.05 0.04 0.06 0.05 0.06 0.05 0.09 0.05 0.01 0.01 0.08 0.02 0.01 0.01 0.02 0.02 0.01 0.04 0.05
0.01 0.00 0.06 0.15 0.06 0.00 0.01 0.00 0.00 0.00 0.00 0.00 0.00 0.01 0.03 0.02 0.03 0.02 0.02 0.04 0.05 0.02 0.02 0.00 0.02 0.07 0.05 0.01 0.09 0.14 0.16 0.04 0.02 0.01 0.07 0.08 0.02 0.01 0.07 0.12 0.07 0.03 0.01
0.01 0.01 0.04 0.04 0.01 0.00 0.00 0.00 0.00 0.00 0.00 0.00 0.00 0.02 0.02 0.01 0.01 0.02 0.07 0.08 0.07 0.02 0.00 0.00 0.00 0.01 0.03 0.02 0.10 0.18 0.17 0.07 0.02 0.00 0.01 0.04 0.21 0.03 0.05 0.11 0.04 0.02 0.00
0.01 0.00 0.01 0.06 0.01 0.00 0.00 0.00 0.00 0.00 0.00 0.00 0.00 0.00 0.00 0.01 0.02 0.06 0.06 0.05 0.06 0.02 0.02 0.00 0.00 0.01 0.03 0.09 0.07 0.09 0.10 0.03 0.00 0.00 0.01 0.04 0.07 0.06 0.05 0.14 0.06 0.03 0.07
0.00 0.00 0.00 0.01 0.00 0.02 0.03 0.00 0.00 0.00 0.00 0.00 0.00 0.00 0.00 0.00 0.01 0.02 0.01 0.01 0.02 0.00 0.00 0.00 0.01 0.00 0.01 0.04 0.06 0.03 0.00 0.03 0.05 0.00 0.00 0.06 0.02 0.12 0.13 0.07 0.06 0.03 0.04
0.01 0.00 0.00 0.00 0.00 0.03 0.02 0.00 0.00 0.00 0.00 0.00 0.00 0.00 0.00 0.00 0.00 0.00 0.00 0.00 0.00 0.00 0.01 0.01 0.02 0.02 0.02 0.03 0.05 0.01 0.00 0.12 0.14 0.08 0.00 0.00 0.05 0.13 0.07 0.01 0.02 0.02 0.02
0.00 0.00 0.00 0.00 0.00 0.00 0.00 0.00 0.00 0.00 0.00 0.00 0.00 0.00 0.02 0.05 0.01 0.01 0.01 0.01 0.03 0.00 0.02 0.03 0.04 0.05 0.02 0.01 0.03 0.05 0.01 0.01 0.03 0.05 0.00 0.00 0.04 0.14 0.06 0.04 0.09 0.04 0.00
0.00 0.00 0.00 0.00 0.00 0.00 0.00 0.00 0.00 0.00 0.00 0.00 0.00 0.00 0.02 0.14 0.11 0.18 0.05 0.00 0.05 0.05 0.02 0.04 0.04 0.03 0.02 0.01 0.01 0.03 0.04 0.00 0.00 0.00 0.00 0.04 0.20 0.10 0.03 0.06 0.07 0.01 0.00
0.00 0.00 0.00 0.00 0.00 0.00 0.00 0.00 0.00 0.00 0.00 0.00 0.00 0.00 0.11 0.05 0.04 0.05 0.00 0.00 0.00 0.04 0.06 0.06 0.06 0.05 0.03 0.02 0.00 0.00 0.00 0.00 0.00 0.00 0.00 0.02 0.17 0.34 0.14 0.05 0.11 0.09 0.02
0.00 0.00 0.00 0.00 0.00 0.00 0.00 0.00 0.00 0.00 0.00 0.00 0.00 0.00 0.02 0.01 0.02 0.04 0.00 0.01 0.00 0.00 0.01 0.02 0.03 0.01 0.00 0.00 0.00 0.00 0.00 0.00 0.00 0.00 0.00 0.00 0.04 0.20 0.43 0.24 0.04 0.08 0.05
0.00 0.00 0.00 0.00 0.00 0.00 0.00 0.00 0.00 0.00 0.00 0.00 0.00 0.00 0.00 0.03 0.01 0.00 0.00 0.00 0.00 0.00 0.01 0.02 0.01 0.06 0.04 0.00 0.00 0.00 0.00 0.00 0.00 0.00 0.00 0.02 0.02 0.06 0.13 0.24 0.11 0.05 0.05
0.00 0.00 0.00 0.00 0.00 0.00 0.00 0.00 0.00 0.00 0.00 0.00 0.00 0.00 0.00 0.01 0.02 0.00 0.00 0.00 0.00 0.01 0.08 0.04 0.08 0.08 0.02 0.01 0.00 0.00 0.00 0.00 0.00 0.00 0.00 0.01 0.01 0.02 0.03 0.09 0.19 0.08 0.07
0.00 0.00 0.00 0.00 0.00 0.00 0.00 0.00 0.00 0.00 0.00 0.00 0.00 0.00 0.00 0.01 0.00 0.00 0.00 0.00 0.01 0.05 0.12 0.09 0.08 0.09 0.00 0.00 0.00 0.00 0.00 0.00 0.00 0.00 0.00 0.00 0.02 0.01 0.03 0.08 0.18 0.17 0.14
0.00 0.00 0.00 0.00 0.00 0.00 0.00 0.00 0.00 0.00 0.00 0.00 0.00 0.00 0.00 0.01 0.02 0.04 0.02 0.01 0.01 0.10 0.12 0.10 0.06 0.19 0.02 0.00 0.00 0.00 0.00 0.00 0.00 0.00 0.00 0.00 0.00 0.01 0.02 0.05 0.14 0.08 0.10
0.00 0.00 0.00 0.00 0.00 0.00 0.00 0.00 0.00 0.00 0.00 0.00 0.00 0.00 0.00 0.00 0.00 0.00 0.11 0.07 0.04 0.12 0.12 0.10 0.08 0.06 0.00 0.00 0.00 0.00 0.00 0.00 0.00 0.00 0.00 0.00 0.00 0.00 0.01 0.02 0.05 0.12 0.08
0.00 0.00 0.00 0.00 0.00 0.00 0.00 0.00 0.00 0.00 0.00 0.00 0.00 0.00 0.00 0.00 0.03 0.16 0.15 0.12 0.05 0.06 0.08 0.08 0.07 0.03 0.00 0.00 0.00 0.00 0.00 0.00 0.00 0.00 0.00 0.00 0.00 0.00 0.00 0.00 0.02 0.03 0.06
0.00 0.00 0.00 0.00 0.00 0.00 0.00 0.00 0.00 0.00 0.00 0.00 0.00 0.02 0.01 0.00 0.06 0.03 0.08 0.14 0.05 0.05 0.06 0.08 0.06 0.00 0.00 0.00 0.00 0.00 0.00 0.00 0.00 0.00 0.00 0.00 0.00 0.00 0.00 0.00 0.00 0.00 0.01
0.00 0.00 0.00 0.00 0.00 0.00 0.00 0.00 0.00 0.00 0.00 0.00 0.00 0.00 0.00 0.00 0.00 0.01 0.10 0.17 0.05 0.06 0.10 0.09 0.04 0.00 0.00 0.00 0.00 0.00 0.00 0.00 0.00 0.00 0.00 0.00 0.00 0.00 0.00 0.00 0.01 0.00 0.02
0.00 0.00 0.00 0.00 0.00 0.00 0.00 0.00 0.00 0.00 0.00 0.00 0.00 0.00 0.00 0.00 0.00 0.07 0.21 0.12 0.02 0.08 0.10 0.07 0.05 0.01 0.00 0.00 0.00 0.00 0.00 0.00 0.00 0.00 0.00 0.00 0.00 0.00 0.00 0.00 0.00 0.00 0.00
0.00 0.00 0.00 0.00 0.00 0.00 0.00 0.00 0.00 0.00 0.00 0.00 0.00 0.00 0.00 0.00 0.00 0.04 0.15 0.07 0.07 0.05 0.18 0.11 0.04 0.02 0.01 0.00 0.00 0.00 0.00 0.00 0.00 0.00 0.00 0.00 0.00 0.00 0.00 0.00 0.00 0.00 0.00
0.00 0.00 0.00 0.00 0.00 0.00 0.00 0.00 0.00 0.00 0.00 0.00 0.00 0.00 0.00 0.00 0.00 0.01 0.06 0.06 0.04 0.01 0.13 0.13 0.01 0.00 0.00 0.00 0.00 0.00 0.00 0.00 0.00 0.00 0.00 0.00 0.00 0.00 0.00 0.00 0.00 0.00 0.00
0.00 0.00 0.00 0.00 0.00 0.00 0.00 0.00 0.00 0.00 0.00 0.00 0.00 0.00 0.00 0.00 0.00 0.00 0.01 0.11 0.02 0.02 0.03 0.08 0.03 0.00 0.00 0.00 0.00 0.00 0.00 0.00 0.00 0.00 0.00 0.00 0.00 0.00 0.00 0.00 0.00 0.00 0.00
0.00 0.00 0.00 0.00 0.00 0.00 0.00 0.00 0.00 0.00 0.00 0.00 0.00 0.00 0.00 0.00 0.00 0.00 0.01 0.02 0.02 0.00 0.00 0.03 0.01 0.00 0.00 0.00 0.00 0.00 0.00 0.00 0.00 0.00 0.00 0.00 0.00 0.00 0.00 0.00 0.00 0.00 0.00

GFSSE_prec_precacc12_030.txt.gz
Total_Precipitation_Accumulation
0.32 0.36 0.39 0.33 0.09 0.02 0.01 0.01 0.03 0.05 0.03 0.00 0.00 0.00 0.00 0.00 0.00 0.01 0.03 0.07 0.10 0.13 0.06 0.02 0.02 0.00 0.00 0.00 0.00 0.00 0.00 0.00 0.00 0.00 0.00 0.00 0.00 0.01 0.00 0.01 0.09 0.04 0.03
0.49 0.15 0.33 0.23 0.10 0.03 0.01 0.02 0.03 0.02 0.01 0.00 0.00 0.01 0.01 0.01 0.01 0.01 0.01 0.05 0.06 0.13 0.07 0.01 0.00 0.00 0.00 0.01 0.01 0.01 0.01 0.00 0.00 0.05 0.11 0.05 0.04 0.03 0.02 0.05 0.22 0.03 0.05
0.22 0.03 0.08 0.11 0.11 0.03 0.01 0.02 0.01 0.00 0.00 0.00 0.00 0.04 0.02 0.03 0.02 0.06 0.07 0.04 0.03 0.02 0.02 0.03 0.01 0.00 0.00 0.03 0.10 0.08 0.04 0.00 0.01 0.09 0.19 0.05 0.01 0.01 0.01 0.15 0.11 0.01 0.09
0.01 0.01 0.00 0.18 0.12 0.02 0.01 0.01 0.00 0.00 0.00 0.00 0.01 0.04 0.04 0.05 0.05 0.01 0.01 0.02 0.01 0.00 0.00 0.02 0.01 0.00 0.00 0.00 0.03 0.04 0.09 0.02 0.01 0.08 0.15 0.03 0.00 0.00 0.04 0.07 0.06 0.11 0.06
0.01 0.00 0.01 0.09 0.06 0.01 0.01 0.00 0.00 0.00 0.00 0.00 0.01 0.01 0.03 0.02 0.03 0.02 0.02 0.04 0.05 0.02 0.02 0.00 0.00 0.00 0.00 0.00 0.09 0.13 0.10 0.04 0.02 0.10 0.12 0.09 0.02 0.01 0.07 0.12 0.08 0.03 0.05
0.01 0.01 0.01 0.04 0.01 0.01 0.00 0.00 0.00 0.00 0.00 0.00 0.00 0.02 0.02 0.01 0.01 0.02 0.07 0.08 0.07 0.02 0.00 0.00 0.00 0.00 0.00 0.02 0.10 0.12 0.10 0.11 0.11 0.11 0.04 0.04 0.21 0.03 0.05 0.12 0.08 0.01 0.00
0.01 0.00 0.01 0.06 0.03 0.01 0.00 0.00 0.00 0.00 0.00 0.00 0.00 0.00 0.00 0.01 0.02 0.06 0.06 0.05 0.06 0.01 0.00 0.00 0.00 0.00 0.03 0.08 0.06 0.07 0.07 0.04 0.04 0.02 0.04 0.04 0.06 0.05 0.04 0.14 0.06 0.03 0.08
0.01 0.00 0.00 0.02 0.01 0.02 0.03 0.00 0.00 0.00 0.00 0.00 0.00 0.00 0.00 0.00 0.01 0.02 0.01 0.01 0.01 0.00 0.00 0.00 0.00 0.00 0.01 0.03 0.05 0.02 0.00 0.04 0.05 0.00 0.01 0.06 0.01 0.08 0.09 0.06 0.06 0.03 0.04
0.01 0.00 0.00 0.00 0.00 0.03 0.02 0.00 0.00 0.00 0.00 0.00 0.00 0.00 0.00 0.00 0.00 0.00 0.00 0.00 0.00 0.00 0.00 0.00 0.00 0.00 0.01 0.03 0.05 0.00 0.00 0.16 0.16 0.08 0.01 0.00 0.04 0.09 0.05 0.01 0.02 0.01 0.02
0.00 0.00 0.00 0.00 0.00 0.00 0.00 0.00 0.00 0.00 0.00 0.00 0.00 0.00 0.02 0.06 0.02 0.01 0.01 0.01 0.03 0.00 0.01 0.00 0.00 0.00 0.00 0.01 0.03 0.04 0.01 0.06 0.18 0.07 0.00 0.00 0.04 0.13 0.06 0.01 0.06 0.00 0.00
0.00 0.00 0.00 0.00 0.00 0.00 0.00 0.00 0.00 0.00 0.00 0.00 0.00 0.02 0.21 0.20 0.21 0.19 0.02 0.00 0.05 0.05 0.02 0.01 0.01 0.00 0.01 0.00 0.00 0.02 0.02 0.02 0.04 0.02 0.01 0.03 0.10 0.05 0.03 0.04 0.01 0.00 0.00
0.00 0.00 0.00 0.00 0.00 0.00 0.00 0.00 0.00 0.00 0.00 0.00 0.00 0.18 0.70 0.16 0.09 0.08 0.00 0.00 0.00 0.04 0.05 0.03 0.03 0.03 0.06 0.03 0.00 0.00 0.00 0.00 0.00 0.00 0.00 0.01 0.11 0.10 0.10 0.05 0.09 0.08 0.01
0.00 0.00 0.00 0.00 0.00 0.00 0.00 0.00 0.00 0.00 0.00 0.00 0.01 0.20 0.63 0.19 0.06 0.05 0.01 0.01 0.00 0.02 0.02 0.06 0.03 0.00 0.00 0.00 0.00 0.00 0.00 0.00 0.00 0.00 0.00 0.00 0.02 0.07 0.24 0.11 0.02 0.06 0.05
0.00 0.00 0.00 0.00 0.00 0.00 0.00 0.00 0.00 0.00 0.00 0.00 0.00 0.01 0.09 0.21 0.09 0.00 0.00 0.01 0.01 0.03 0.08 0.03 0.02 0.05 0.04 0.00 0.00 0.00 0.00 0.00 0.00 0.00 0.00 0.00 0.00 0.02 0.05 0.03 0.04 0.04 0.03
0.00 0.00 0.00 0.00 0.00 0.00 0.00 0.00 0.00 0.00 0.00 0.00 0.00 0.00 0.06 0.15 0.05 0.01 0.01 0.01 0.03 0.14 0.71 0.08 0.08 0.08 0.02 0.02 0.00 0.00 0.00 0.00 0.00 0.00 0.00 0.00 0.00 0.00 0.00 0.03 0.05 0.04 0.06
0.00 0.00 0.00 0.00 0.00 0.00 0.00 0.00 0.00 0.00 0.00 0.00 0.00 0.00 0.00 0.03 0.03 0.01 0.01 0.00 0.02 0.04 0.20 0.12 0.09 0.23 0.01 0.00 0.00 0.00 0.00 0.00 0.00 0.00 0.00 0.00 0.00 0.00 0.00 0.04 0.07 0.10 0.07
0.00 0.00 0.00 0.00 0.00 0.00 0.00 0.00 0.00 0.00 0.00 0.00 0.00 0.00 0.00 0.00 0.01 0.04 0.03 0.02 0.03 0.11 0.11 0.10 0.07 0.26 0.02 0.00 0.00 0.00 0.00 0.00 0.00 0.00 0.00 0.00 0.00 0.00 0.00 0.01 0.04 0.06 0.09
0.00 0.00 0.00 0.00 0.00 0.00 0.00 0.00 0.00 0.00 0.00 0.00 0.00 0.00 0.00 0.00 0.01 0.01 0.12 0.09 0.09 0.13 0.12 0.10 0.08 0.06 0.00 0.00 0.00 0.00 0.00 0.00 0.00 0.00 0.00 0.00 0.00 0.00 0.00 0.00 0.02 0.08 0.08
0.00 0.00 0.00 0.00 0.00 0.00 0.00 0.00 0.00 0.00 0.00 0.00 0.00 0.00 0.00 0.00 0.00 0.05 0.12 0.12 0.07 0.14 0.09 0.08 0.07 0.03 0.00 0.00 0.00 0.00 0.00 0.00 0.00 0.00 0.00 0.00 0.00 0.00 0.00 0.00 0.01 0.02 0.04
0.00 0.00 0.00 0.00 0.00 0.00 0.00 0.00 0.00 0.00 0.00 0.00 0.00 0.01 0.01 0.00 0.01 0.00 0.08 0.17 0.07 0.07 0.06 0.08 0.06 0.00 0.00 0.00 0.00 0.00 0.00 0.00 0.00 0.00 0.00 0.00 0.00 0.00 0.00 0.00 0.00 0.00 0.00
0.00 0.00 0.00 0.00 0.01 0.01 0.00 0.00 0.00 0.00 0.00 0.00 0.00 0.00 0.00 0.00 0.00 0.04 0.16 0.21 0.09 0.08 0.11 0.09 0.04 0.00 0.00 0.00 0.00 0.00 0.00 0.00 0.00 0.00 0.00 0.00 0.00 0.00 0.00 0.00 0.01 0.00 0.02
0.00 0.00 0.00 0.00 0.00 0.00 0.00 0.00 0.00 0.00 0.00 0.00 0.00 0.00 0.00 0.00 0.01 0.10 0.25 0.13 0.07 0.11 0.13 0.07 0.06 0.04 0.00 0.00 0.00 0.00 0.00 0.00 0.00 0.00 0.00 0.00 0.00 0.00 0.00 0.00 0.00 0.00 0.01
0.00 0.00 0.00 0.00 0.00 0.00 0.00 0.00 0.00 0.00 0.00 0.00 0.00 0.00 0.00 0.00 0.00 0.09 0.18 0.08 0.13 0.10 0.23 0.14 0.04 0.02 0.01 0.00 0.00 0.00 0.00 0.00 0.00 0.00 0.00 0.00 0.00 0.00 0.00 0.00 0.00 0.00 0.00
0.00 0.00 0.00 0.00 0.00 0.00 0.00 0.00 0.00 0.00 0.00 0.00 0.00 0.00 0.00 0.00 0.00 0.02 0.07 0.07 0.06 0.04 0.15 0.16 0.02 0.01 0.00 0.00 0.00 0.00 0.00 0.01 0.00 0.00 0.00 0.00 0.00 0.00 0.00 0.00 0.00 0.00 0.00
0.00 0.00 0.00 0.00 0.00 0.00 0.00 0.00 0.00 0.00 0.00 0.00 0.00 0.00 0.00 0.00 0.00 0.00 0.02 0.11 0.03 0.03 0.06 0.11 0.03 0.00 0.00 0.00 0.00 0.00 0.00 0.00 0.00 0.00 0.00 0.00 0.00 0.00 0.00 0.00 0.00 0.00 0.00
0.00 0.00 0.00 0.00 0.00 0.00 0.00 0.00 0.00 0.00 0.00 0.00 0.00 0.00 0.00 0.00 0.00 0.00 0.01 0.03 0.04 0.01 0.03 0.07 0.03 0.00 0.00 0.00 0.00 0.00 0.00 0.00 0.00 0.00 0.00 0.00 0.00 0.00 0.00 0.00 0.00 0.00 0.00

GFSSE_prec_precacc12_033.txt.gz
Total_Precipitation_Accumulation
0.28 0.24 0.17 0.13 0.04 0.01 0.00 0.00 0.00 0.02 0.01 0.00 0.00 0.00 0.00 0.00 0.01 0.02 0.04 0.09 0.10 0.11 0.05 0.02 0.02 0.00 0.00 0.00 0.00 0.00 0.00 0.00 0.00 0.00 0.00 0.00 0.00 0.01 0.00 0.02 0.11 0.03 0.03
0.48 0.13 0.23 0.09 0.01 0.03 0.02 0.01 0.01 0.01 0.01 0.00 0.01 0.01 0.01 0.01 0.01 0.01 0.03 0.05 0.05 0.10 0.06 0.00 0.00 0.00 0.00 0.01 0.01 0.01 0.00 0.00 0.00 0.05 0.11 0.05 0.02 0.01 0.02 0.09 0.27 0.02 0.04
0.22 0.03 0.05 0.05 0.04 0.05 0.04 0.03 0.01 0.01 0.00 0.00 0.00 0.04 0.02 0.03 0.03 0.06 0.07 0.04 0.01 0.01 0.01 0.02 0.01 0.00 0.00 0.03 0.10 0.07 0.03 0.01 0.03 0.10 0.20 0.05 0.01 0.00 0.05 0.24 0.13 0.02 0.10
0.01 0.01 0.00 0.08 0.07 0.05 0.04 0.03 0.00 0.00 0.00 0.00 0.01 0.04 0.04 0.05 0.06 0.01 0.01 0.02 0.01 0.00 0.00 0.00 0.00 0.00 0.00 0.00 0.03 0.04 0.08 0.02 0.06 0.17 0.14 0.02 0.00 0.02 0.10 0.10 0.10 0.16 0.03
0.01 0.00 0.00 0.03 0.05 0.04 0.04 0.01 0.00 0.00 0.00 0.00 0.01 0.01 0.03 0.02 0.03 0.02 0.01 0.03 0.05 0.01 0.00 0.00 0.00 0.00 0.00 0.00 0.06 0.03 0.06 0.08 0.03 0.15 0.12 0.07 0.02 0.02 0.07 0.14 0.12 0.07 0.06
0.01 0.01 0.00 0.02 0.01 0.04 0.01 0.00 0.00 0.00 0.00 0.00 0.00 0.02 0.02 0.01 0.01 0.01 0.02 0.05 0.05 0.01 0.00 0.00 0.00 0.00 0.00 0.00 0.00 0.00 0.02 0.14 0.17 0.17 0.06 0.04 0.14 0.01 0.06 0.12 0.07 0.01 0.00
0.01 0.00 0.00 0.05 0.04 0.02 0.00 0.00 0.00 0.00 0.00 0.00 0.00 0.00 0.00 0.01 0.02 0.06 0.05 0.02 0.04 0.01 0.00 0.00 0.00 0.00 0.00 0.01 0.01 0.01 0.02 0.07 0.08 0.15 0.07 0.04 0.05 0.01 0.03 0.09 0.05 0.02 0.08
0.01 0.00 0.00 0.02 0.02 0.02 0.02 0.00 0.00 0.00 0.00 0.00 0.00 0.00 0.00 0.00 0.01 0.02 0.01 0.00 0.00 0.00 0.00 0.00 0.00 0.00 0.01 0.01 0.02 0.01 0.02 0.05 0.07 0.01 0.02 0.06 0.01 0.03 0.05 0.05 0.04 0.03 0.03
0.01 0.00 0.00 0.00 0.00 0.03 0.02 0.00 0.00 0.00 0.00 0.00 0.00 0.00 0.00 0.00 0.00 0.00 0.00 0.00 0.00 0.00 0.00 0.00 0.00 0.00 0.01 0.02 0.04 0.00 0.00 0.16 0.16 0.08 0.01 0.00 0.04 0.08 0.03 0.02 0.01 0.01 0.02
0.00 0.00 0.00 0.00 0.00 0.00 0.00 0.00 0.00 0.00 0.00 0.00 0.00 0.01 0.02 0.02 0.01 0.01 0.01 0.00 0.01 0.00 0.00 0.00 0.00 0.00 0.00 0.01 0.03 0.02 0.00 0.06 0.18 0.08 0.00 0.01 0.03 0.11 0.03 0.01 0.01 0.00 0.00
0.00 0.00 0.00 0.00 0.00 0.00 0.00 0.00 0.00 0.00 0.00 0.00 0.01 0.06 0.28 0.21 0.22 0.22 0.03 0.00 0.00 0.00 0.00 0.00 0.00 0.00 0.00 0.00 0.00 0.01 0.01 0.03 0.05 0.03 0.01 0.00 0.01 0.03 0.03 0.02 0.00 0.00 0.01
0.00 0.00 0.00 0.00 0.00 0.00 0.00 0.00 0.00 0.00 0.00 0.00 0.01 0.19 0.79 0.16 0.09 0.11 0.00 0.00 0.00 0.00 0.01 0.00 0.00 0.00 0.06 0.03 0.00 0.01 0.03 0.01 0.00 0.00 0.00 0.00 0.00 0.03 0.03 0.03 0.05 0.02 0.01
0.00 0.00 0.00 0.00 0.00 0.00 0.00 0.00 0.00 0.00 0.00 0.00 0.03 0.26 0.81 0.23 0.10 0.12 0.01 0.01 0.00 0.02 0.02 0.06 0.03 0.01 0.00 0.00 0.00 0.00 0.01 0.01 0.01 0.00 0.00 0.00 0.00 0.04 0.02 0.01 0.01 0.00 0.01
0.00 0.00 0.00 0.00 0.00 0.00 0.00 0.00 0.00 0.00 0.00 0.00 0.01 0.05 0.16 0.25 0.14 0.03 0.03 0.01 0.01 0.05 0.09 0.03 0.02 0.04 0.03 0.00 0.00 0.00 0.00 0.00 0.00 0.00 0.00 0.00 0.00 0.00 0.00 0.00 0.01 0.00 0.00
0.00 0.00 0.00 0.00 0.00 0.00 0.00 0.00 0.00 0.00 0.00 0.00 0.00 0.00 0.10 0.21 0.09 0.04 0.04 0.06 0.04 0.14 0.72 0.09 0.10 0.05 0.01 0.02 0.00 0.00 0.00 0.00 0.00 0.00 0.00 0.00 0.00 0.00 0.00 0.01 0.02 0.00 0.01
0.00 0.00 0.00 0.00 0.00 0.00 0.00 0.00 0.00 0.00 0.00 0.00 0.00 0.00 0.01 0.07 0.07 0.07 0.09 0.07 0.04 0.05 0.20 0.13 0.09 0.23 0.01 0.00 0.00 0.00 0.00 0.00 0.00 0.00 0.00 0.00 0.00 0.00 0.00 0.00 0.01 0.03 0.01
0.00 0.00 0.00 0.00 0.00 0.00 0.00 0.00 0.00 0.00 0.00 0.00 0.00 0.00 0.00 0.00 0.02 0.06 0.06 0.03 0.05 0.12 0.09 0.06 0.08 0.25 0.02 0.00 0.00 0.00 0.00 0.00 0.00 0.00 0.00 0.00 0.00 0.00 0.00 0.00 0.04 0.04 0.05
0.00 0.00 0.00 0.00 0.00 0.00 0.00 0.00 0.00 0.00 0.00 0.00 0.00 0.00 0.00 0.00 0.01 0.05 0.17 0.12 0.11 0.14 0.05 0.03 0.04 0.04 0.00 0.00 0.00 0.00 0.00 0.00 0.00 0.00 0.00 0.00 0.00 0.00 0.00 0.00 0.02 0.11 0.07
0.00 0.00 0.00 0.00 0.00 0.00 0.00 0.00 0.00 0.00 0.00 0.00 0.00 0.00 0.00 0.00 0.00 0.03 0.16 0.17 0.08 0.15 0.06 0.04 0.06 0.02 0.00 0.00 0.00 0.00 0.00 0.00 0.00 0.00 0.00 0.00 0.00 0.00 0.00 0.00 0.00 0.04 0.04
0.00 0.00 0.00 0.00 0.00 0.00 0.00 0.00 0.00 0.00 0.00 0.00 0.00 0.00 0.00 0.00 0.00 0.01 0.14 0.23 0.09 0.07 0.07 0.08 0.05 0.00 0.00 0.00 0.00 0.00 0.00 0.00 0.00 0.00 0.00 0.00 0.00 0.00 0.00 0.00 0.00 0.01 0.01
0.00 0.00 0.00 0.00 0.01 0.01 0.00 0.00 0.00 0.00 0.00 0.00 0.00 0.00 0.00 0.00 0.00 0.05 0.16 0.24 0.07 0.08 0.11 0.08 0.04 0.00 0.00 0.00 0.00 0.00 0.00 0.00 0.00 0.00 0.00 0.00 0.00 0.00 0.00 0.00 0.00 0.00 0.01
0.00 0.00 0.00 0.00 0.00 0.00 0.00 0.00 0.00 0.00 0.00 0.00 0.00 0.00 0.00 0.00 0.01 0.10 0.26 0.14 0.06 0.12 0.13 0.08 0.07 0.04 0.00 0.00 0.00 0.00 0.00 0.00 0.00 0.00 0.00 0.00 0.00 0.00 0.00 0.00 0.00 0.00 0.00
0.00 0.00 0.00 0.00 0.00 0.00 0.00 0.00 0.00 0.00 0.00 0.00 0.00 0.00 0.00 0.00 0.00 0.09 0.18 0.10 0.14 0.11 0.23 0.15 0.04 0.02 0.01 0.00 0.00 0.00 0.00 0.00 0.00 0.00 0.00 0.00 0.00 0.00 0.00 0.00 0.00 0.00 0.00
0.00 0.00 0.00 0.00 0.00 0.00 0.00 0.00 0.00 0.00 0.00 0.00 0.00 0.00 0.00 0.00 0.00 0.02 0.07 0.08 0.06 0.04 0.15 0.17 0.02 0.01 0.00 0.00 0.00 0.00 0.00 0.01 0.00 0.00 0.00 0.00 0.00 0.00 0.00 0.00 0.00 0.00 0.00
0.00 0.00 0.00 0.00 0.00 0.00 0.00 0.00 0.00 0.00 0.00 0.00 0.00 0.00 0.00 0.00 0.00 0.00 0.02 0.11 0.03 0.04 0.06 0.11 0.03 0.00 0.00 0.00 0.00 0.00 0.00 0.00 0.00 0.00 0.00 0.00 0.00 0.00 0.00 0.00 0.00 0.00 0.00
0.00 0.00 0.00 0.00 0.00 0.00 0.00 0.00 0.00 0.00 0.00 0.00 0.00 0.00 0.00 0.00 0.00 0.00 0.01 0.03 0.04 0.01 0.03 0.07 0.03 0.00 0.00 0.00 0.00 0.00 0.00 0.00 0.00 0.00 0.00 0.00 0.00 0.00 0.00 0.00 0.00 0.00 0.00

GFSSE_prec_precacc12_036.txt.gz
Total_Precipitation_Accumulation
0.03 0.03 0.08 0.05 0.03 0.01 0.00 0.00 0.00 0.00 0.00 0.00 0.00 0.00 0.00 0.00 0.00 0.02 0.03 0.04 0.01 0.04 0.02 0.00 0.00 0.00 0.00 0.00 0.00 0.00 0.00 0.00 0.00 0.00 0.00 0.00 0.00 0.00 0.01 0.04 0.11 0.03 0.06
0.29 0.03 0.06 0.05 0.01 0.02 0.02 0.01 0.01 0.01 0.01 0.00 0.01 0.01 0.01 0.00 0.00 0.01 0.03 0.03 0.01 0.01 0.00 0.00 0.00 0.00 0.00 0.00 0.00 0.01 0.00 0.00 0.00 0.01 0.06 0.02 0.01 0.01 0.09 0.15 0.26 0.02 0.04
0.18 0.01 0.01 0.03 0.01 0.03 0.03 0.02 0.01 0.01 0.00 0.00 0.00 0.04 0.02 0.03 0.02 0.06 0.04 0.03 0.01 0.01 0.00 0.02 0.00 0.00 0.00 0.01 0.07 0.04 0.00 0.02 0.06 0.09 0.19 0.05 0.01 0.07 0.17 0.29 0.14 0.04 0.11
0.01 0.00 0.00 0.04 0.03 0.03 0.04 0.02 0.01 0.00 0.00 0.00 0.01 0.03 0.04 0.03 0.03 0.01 0.01 0.01 0.00 0.00 0.00 0.00 0.00 0.00 0.00 0.00 0.00 0.00 0.03 0.02 0.07 0.16 0.13 0.02 0.00 0.12 0.10 0.09 0.11 0.16 0.04
0.00 0.00 0.00 0.02 0.04 0.04 0.04 0.01 0.00 0.00 0.00 0.00 0.00 0.01 0.03 0.00 0.03 0.02 0.01 0.00 0.00 0.01 0.00 0.00 0.00 0.00 0.00 0.00 0.00 0.00 0.05 0.06 0.02 0.14 0.09 0.01 0.00 0.02 0.04 0.09 0.13 0.07 0.07
0.01 0.00 0.00 0.01 0.01 0.04 0.01 0.00 0.00 0.00 0.00 0.00 0.00 0.02 0.02 0.01 0.01 0.00 0.00 0.00 0.00 0.00 0.00 0.00 0.00 0.00 0.00 0.01 0.01 0.02 0.05 0.15 0.17 0.17 0.05 0.01 0.01 0.01 0.05 0.07 0.07 0.02 0.03
0.01 0.00 0.00 0.04 0.04 0.03 0.00 0.00 0.00 0.00 0.00 0.00 0.00 0.00 0.00 0.01 0.01 0.00 0.00 0.00 0.00 0.00 0.00 0.00 0.00 0.00 0.01 0.05 0.03 0.05 0.10 0.12 0.09 0.15 0.07 0.02 0.01 0.00 0.01 0.01 0.01 0.02 0.09
0.01 0.00 0.00 0.01 0.02 0.01 0.00 0.00 0.00 0.00 0.00 0.01 0.01 0.00 0.00 0.00 0.01 0.01 0.00 0.00 0.00 0.00 0.00 0.00 0.00 0.00 0.00 0.01 0.04 0.05 0.09 0.08 0.06 0.01 0.02 0.05 0.00 0.00 0.01 0.01 0.00 0.01 0.02
0.01 0.00 0.00 0.00 0.00 0.00 0.01 0.00 0.00 0.00 0.00 0.01 0.00 0.00 0.00 0.00 0.00 0.00 0.00 0.00 0.00 0.00 0.00 0.00 0.00 0.00 0.00 0.00 0.00 0.01 0.05 0.15 0.14 0.01 0.01 0.00 0.02 0.04 0.01 0.01 0.01 0.01 0.03
0.00 0.00 0.00 0.00 0.00 0.00 0.00 0.00 0.00 0.00 0.00 0.00 0.00 0.01 0.02 0.02 0.01 0.00 0.01 0.00 0.00 0.00 0.00 0.00 0.00 0.00 0.00 0.00 0.00 0.00 0.08 0.12 0.19 0.06 0.00 0.00 0.00 0.01 0.01 0.01 0.01 0.00 0.01
0.00 0.00 0.00 0.00 0.00 0.00 0.00 0.00 0.00 0.00 0.00 0.00 0.01 0.06 0.28 0.21 0.22 0.20 0.02 0.00 0.00 0.00 0.00 0.00 0.00 0.00 0.01 0.01 0.01 0.02 0.03 0.12 0.14 0.03 0.01 0.00 0.00 0.00 0.00 0.02 0.00 0.01 0.01
0.00 0.00 0.00 0.00 0.00 0.00 0.00 0.00 0.00 0.00 0.00 0.00 0.01 0.19 0.79 0.16 0.09 0.11 0.00 0.00 0.00 0.00 0.00 0.00 0.00 0.01 0.07 0.03 0.00 0.02 0.05 0.05 0.08 0.01 0.00 0.01 0.00 0.00 0.00 0.01 0.01 0.01 0.02
0.00 0.00 0.00 0.00 0.00 0.00 0.00 0.00 0.00 0.00 0.00 0.00 0.03 0.26 0.81 0.23 0.10 0.12 0.01 0.01 0.00 0.02 0.02 0.06 0.03 0.00 0.00 0.00 0.00 0.00 0.01 0.02 0.04 0.00 0.00 0.01 0.00 0.00 0.00 0.00 0.00 0.00 0.00
0.00 0.00 0.00 0.00 0.00 0.00 0.00 0.00 0.00 0.00 0.00 0.00 0.01 0.05 0.16 0.25 0.14 0.03 0.04 0.02 0.02 0.05 0.09 0.04 0.01 0.01 0.01 0.00 0.00 0.00 0.00 0.00 0.00 0.00 0.00 0.01 0.02 0.00 0.00 0.00 0.00 0.00 0.00
0.00 0.00 0.00 0.00 0.00 0.00 0.00 0.00 0.00 0.00 0.00 0.00 0.00 0.00 0.10 0.21 0.08 0.04 0.04 0.06 0.05 0.15 0.72 0.05 0.02 0.01 0.00 0.02 0.00 0.00 0.00 0.00 0.00 0.00 0.00 0.00 0.00 0.00 0.00 0.00 0.01 0.00 0.00
0.00 0.00 0.00 0.00 0.00 0.00 0.00 0.00 0.00 0.00 0.00 0.00 0.00 0.00 0.01 0.07 0.07 0.07 0.10 0.07 0.05 0.04 0.16 0.05 0.02 0.20 0.01 0.00 0.00 0.00 0.00 0.00 0.00 0.00 0.00 0.00 0.00 0.00 0.00 0.00 0.01 0.01 0.00
0.00 0.00 0.00 0.00 0.00 0.00 0.00 0.00 0.00 0.00 0.00 0.00 0.00 0.00 0.00 0.00 0.02 0.06 0.05 0.03 0.06 0.05 0.00 0.02 0.04 0.24 0.02 0.00 0.00 0.00 0.00 0.00 0.00 0.00 0.00 0.00 0.00 0.00 0.00 0.01 0.04 0.02 0.02
0.00 0.00 0.00 0.00 0.00 0.00 0.00 0.00 0.00 0.00 0.00 0.00 0.00 0.00 0.00 0.00 0.01 0.05 0.10 0.05 0.10 0.08 0.03 0.04 0.01 0.01 0.00 0.00 0.00 0.00 0.00 0.00 0.00 0.00 0.00 0.00 0.00 0.00 0.00 0.00 0.04 0.09 0.08
0.00 0.00 0.00 0.00 0.00 0.00 0.00 0.00 0.00 0.00 0.00 0.00 0.00 0.00 0.00 0.00 0.00 0.03 0.08 0.09 0.05 0.13 0.03 0.01 0.02 0.01 0.00 0.00 0.00 0.00 0.00 0.00 0.00 0.00 0.00 0.00 0.00 0.00 0.00 0.01 0.02 0.10 0.10
0.00 0.00 0.00 0.00 0.00 0.00 0.00 0.00 0.00 0.00 0.00 0.00 0.00 0.00 0.00 0.00 0.00 0.01 0.11 0.12 0.06 0.06 0.03 0.01 0.00 0.00 0.00 0.00 0.00 0.00 0.00 0.00 0.00 0.00 0.00 0.00 0.00 0.00 0.00 0.00 0.01 0.02 0.02
0.00 0.00 0.00 0.00 0.01 0.01 0.00 0.00 0.00 0.00 0.00 0.00 0.00 0.00 0.00 0.00 0.00 0.05 0.14 0.17 0.07 0.05 0.05 0.02 0.00 0.00 0.00 0.00 0.00 0.00 0.00 0.00 0.00 0.00 0.00 0.00 0.00 0.00 0.00 0.00 0.00 0.00 0.00
0.00 0.00 0.00 0.00 0.00 0.00 0.00 0.00 0.00 0.00 0.00 0.00 0.00 0.00 0.00 0.00 0.01 0.10 0.19 0.05 0.05 0.07 0.09 0.02 0.01 0.03 0.00 0.00 0.00 0.00 0.00 0.00 0.00 0.00 0.00 0.00 0.00 0.00 0.00 0.00 0.00 0.00 0.00
0.00 0.00 0.00 0.00 0.00 0.00 0.00 0.00 0.00 0.00 0.00 0.00 0.00 0.00 0.00 0.00 0.00 0.09 0.14 0.03 0.08 0.08 0.18 0.10 0.01 0.01 0.01 0.00 0.00 0.00 0.00 0.00 0.00 0.00 0.00 0.00 0.00 0.00 0.00 0.00 0.00 0.00 0.00
0.00 0.00 0.00 0.00 0.00 0.00 0.00 0.00 0.00 0.00 0.00 0.00 0.00 0.00 0.00 0.00 0.00 0.02 0.06 0.04 0.03 0.04 0.12 0.13 0.01 0.01 0.00 0.00 0.00 0.00 0.00 0.01 0.00 0.00 0.00 0.00 0.00 0.00 0.00 0.00 0.00 0.00 0.00
0.00 0.00 0.00 0.00 0.00 0.00 0.00 0.00 0.00 0.00 0.00 0.00 0.00 0.00 0.00 0.00 0.00 0.00 0.01 0.05 0.02 0.02 0.06 0.10 0.03 0.00 0.00 0.00 0.00 0.00 0.00 0.00 0.00 0.00 0.00 0.00 0.00 0.00 0.00 0.00 0.00 0.00 0.00
0.00 0.00 0.00 0.00 0.00 0.00 0.00 0.00 0.00 0.00 0.00 0.00 0.00 0.00 0.00 0.00 0.00 0.00 0.00 0.01 0.02 0.01 0.03 0.06 0.03 0.00 0.00 0.00 0.00 0.00 0.00 0.00 0.00 0.00 0.00 0.00 0.00 0.00 0.00 0.00 0.00 0.00 0.00

GFSSE_prec_precacc12_042.txt.gz
Total_Precipitation_Accumulation
0.03 0.25 0.19 0.09 0.03 0.01 0.01 0.00 0.01 0.01 0.01 0.01 0.00 0.00 0.00 0.00 0.01 0.02 0.02 0.02 0.01 0.00 0.00 0.01 0.00 0.00 0.00 0.00 0.00 0.00 0.00 0.00 0.00 0.00 0.01 0.02 0.02 0.02 0.01 0.04 0.03 0.01 0.05
0.00 0.12 0.12 0.11 0.02 0.02 0.02 0.01 0.01 0.01 0.02 0.01 0.01 0.01 0.01 0.01 0.05 0.02 0.02 0.01 0.00 0.00 0.01 0.01 0.00 0.00 0.00 0.00 0.00 0.00 0.00 0.00 0.01 0.01 0.03 0.03 0.07 0.12 0.10 0.10 0.05 0.02 0.04
0.00 0.05 0.03 0.07 0.02 0.04 0.04 0.03 0.01 0.01 0.01 0.01 0.01 0.01 0.02 0.05 0.05 0.01 0.01 0.00 0.00 0.01 0.01 0.01 0.02 0.00 0.00 0.01 0.03 0.02 0.01 0.04 0.06 0.03 0.02 0.00 0.03 0.23 0.20 0.16 0.08 0.09 0.06
0.00 0.03 0.01 0.02 0.03 0.04 0.05 0.02 0.01 0.01 0.01 0.01 0.01 0.01 0.02 0.12 0.07 0.02 0.01 0.01 0.02 0.07 0.12 0.17 0.12 0.01 0.01 0.04 0.08 0.19 0.13 0.03 0.06 0.10 0.00 0.00 0.06 0.24 0.08 0.04 0.10 0.11 0.02
0.00 0.01 0.00 0.01 0.02 0.04 0.04 0.01 0.01 0.01 0.00 0.01 0.01 0.03 0.06 0.07 0.03 0.00 0.00 0.00 0.00 0.01 0.01 0.02 0.01 0.00 0.05 0.13 0.06 0.11 0.19 0.07 0.01 0.05 0.00 0.00 0.05 0.02 0.02 0.05 0.08 0.05 0.03
0.01 0.00 0.00 0.00 0.01 0.03 0.01 0.01 0.01 0.01 0.01 0.02 0.03 0.03 0.07 0.03 0.00 0.00 0.00 0.00 0.00 0.00 0.00 0.00 0.00 0.00 0.01 0.08 0.11 0.16 0.17 0.17 0.09 0.06 0.02 0.01 0.00 0.01 0.03 0.02 0.01 0.02 0.04
0.00 0.00 0.00 0.03 0.03 0.02 0.01 0.00 0.01 0.01 0.03 0.02 0.01 0.03 0.02 0.00 0.00 0.00 0.00 0.00 0.00 0.00 0.00 0.00 0.00 0.00 0.02 0.13 0.12 0.18 0.23 0.13 0.04 0.13 0.03 0.00 0.02 0.03 0.01 0.01 0.01 0.02 0.03
0.00 0.00 0.01 0.02 0.01 0.02 0.01 0.01 0.01 0.00 0.01 0.03 0.05 0.03 0.01 0.00 0.00 0.00 0.00 0.00 0.00 0.00 0.00 0.00 0.01 0.01 0.00 0.07 0.09 0.18 0.26 0.04 0.01 0.01 0.01 0.00 0.00 0.00 0.01 0.01 0.01 0.02 0.03
0.00 0.00 0.01 0.01 0.01 0.01 0.02 0.02 0.01 0.01 0.02 0.01 0.01 0.01 0.00 0.00 0.00 0.00 0.01 0.00 0.00 0.00 0.00 0.00 0.00 0.00 0.02 0.02 0.06 0.04 0.22 0.02 0.00 0.00 0.00 0.00 0.01 0.01 0.01 0.01 0.03 0.02 0.06
0.00 0.00 0.00 0.00 0.00 0.00 0.00 0.01 0.00 0.01 0.00 0.00 0.00 0.01 0.01 0.01 0.03 0.02 0.02 0.01 0.00 0.00 0.00 0.02 0.03 0.02 0.03 0.07 0.07 0.02 0.15 0.11 0.03 0.02 0.00 0.01 0.04 0.03 0.02 0.02 0.03 0.02 0.03
0.00 0.00 0.00 0.00 0.00 0.00 0.00 0.00 0.00 0.00 0.00 0.00 0.01 0.04 0.08 0.05 0.04 0.04 0.02 0.01 0.00 0.00 0.00 0.01 0.01 0.03 0.02 0.03 0.08 0.14 0.05 0.10 0.12 0.01 0.00 0.01 0.07 0.01 0.01 0.02 0.01 0.02 0.03
0.00 0.00 0.00 0.00 0.00 0.00 0.00 0.00 0.00 0.00 0.00 0.00 0.01 0.00 0.09 0.04 0.02 0.03 0.02 0.05 0.02 0.01 0.01 0.00 0.01 0.02 0.01 0.00 0.01 0.08 0.06 0.05 0.08 0.01 0.01 0.03 0.04 0.00 0.00 0.01 0.01 0.01 0.03
0.00 0.00 0.00 0.00 0.00 0.00 0.00 0.00 0.00 0.00 0.00 0.00 0.02 0.06 0.18 0.04 0.04 0.07 0.01 0.04 0.01 0.00 0.00 0.01 0.02 0.00 0.00 0.00 0.00 0.00 0.01 0.02 0.04 0.00 0.01 0.02 0.02 0.00 0.00 0.02 0.02 0.01 0.01
0.00 0.00 0.00 0.00 0.00 0.00 0.00 0.00 0.00 0.00 0.00 0.00 0.01 0.04 0.07 0.03 0.06 0.02 0.03 0.01 0.00 0.02 0.02 0.02 0.01 0.02 0.01 0.00 0.00 0.00 0.00 0.00 0.00 0.00 0.00 0.02 0.08 0.02 0.00 0.00 0.01 0.01 0.00
0.00 0.00 0.00 0.00 0.00 0.00 0.00 0.00 0.00 0.00 0.00 0.00 0.00 0.00 0.04 0.07 0.06 0.04 0.04 0.07 0.02 0.01 0.03 0.04 0.03 0.01 0.00 0.00 0.00 0.00 0.00 0.00 0.00 0.00 0.00 0.02 0.06 0.15 0.04 0.00 0.00 0.00 0.00
0.00 0.00 0.00 0.00 0.00 0.00 0.00 0.00 0.00 0.00 0.00 0.00 0.00 0.00 0.01 0.05 0.14 0.17 0.13 0.07 0.04 0.04 0.02 0.02 0.01 0.00 0.00 0.00 0.00 0.00 0.00 0.00 0.00 0.00 0.00 0.02 0.03 0.08 0.10 0.01 0.00 0.00 0.00
0.00 0.00 0.00 0.00 0.00 0.00 0.00 0.00 0.00 0.00 0.00 0.00 0.00 0.00 0.00 0.00 0.07 0.08 0.08 0.05 0.05 0.04 0.00 0.03 0.02 0.00 0.00 0.00 0.00 0.00 0.00 0.00 0.00 0.00 0.00 0.02 0.02 0.03 0.11 0.20 0.10 0.01 0.02
0.00 0.00 0.00 0.00 0.00 0.00 0.00 0.00 0.00 0.00 0.00 0.00 0.00 0.00 0.00 0.00 0.02 0.09 0.10 0.06 0.04 0.07 0.05 0.05 0.02 0.00 0.00 0.00 0.00 0.00 0.00 0.00 0.00 0.00 0.00 0.00 0.00 0.00 0.04 0.12 0.21 0.14 0.13
0.00 0.00 0.00 0.00 0.00 0.00 0.00 0.00 0.00 0.00 0.00 0.00 0.00 0.00 0.00 0.00 0.00 0.04 0.14 0.13 0.02 0.04 0.04 0.02 0.04 0.01 0.00 0.00 0.00 0.00 0.00 0.00 0.00 0.00 0.00 0.00 0.00 0.00 0.00 0.05 0.09 0.16 0.16
0.00 0.00 0.00 0.00 0.00 0.00 0.00 0.00 0.00 0.00 0.00 0.00 0.00 0.00 0.00 0.00 0.00 0.01 0.16 0.19 0.09 0.05 0.07 0.05 0.02 0.00 0.00 0.00 0.00 0.00 0.00 0.00 0.00 0.00 0.00 0.00 0.00 0.00 0.00 0.00 0.02 0.03 0.04
0.00 0.00 0.00 0.00 0.00 0.00 0.00 0.00 0.00 0.00 0.00 0.00 0.00 0.00 0.00 0.00 0.00 0.00 0.03 0.13 0.07 0.05 0.03 0.02 0.00 0.00 0.00 0.00 0.00 0.00 0.00 0.00 0.00 0.00 0.00 0.00 0.00 0.00 0.00 0.00 0.00 0.00 0.00
0.00 0.00 0.00 0.00 0.00 0.00 0.00 0.00 0.00 0.00 0.00 0.00 0.00 0.00 0.00 0.00 0.00 0.00 0.01 0.04 0.05 0.03 0.04 0.00 0.00 0.00 0.00 0.00 0.00 0.00 0.00 0.00 0.00 0.00 0.00 0.00 0.00 0.00 0.00 0.00 0.00 0.00 0.00
0.00 0.00 0.00 0.00 0.00 0.00 0.00 0.00 0.00 0.00 0.00 0.00 0.00 0.00 0.00 0.00 0.00 0.00 0.00 0.03 0.02 0.03 0.00 0.01 0.00 0.00 0.00 0.00 0.00 0.00 0.00 0.00 0.00 0.00 0.00 0.00 0.00 0.00 0.00 0.00 0.00 0.00 0.00
0.00 0.00 0.00 0.00 0.00 0.00 0.00 0.00 0.00 0.00 0.00 0.00 0.00 0.00 0.00 0.00 0.00 0.00 0.00 0.01 0.00 0.03 0.01 0.00 0.00 0.00 0.00 0.00 0.00 0.00 0.00 0.00 0.00 0.00 0.00 0.00 0.00 0.00 0.00 0.00 0.00 0.00 0.00
0.00 0.00 0.00 0.00 0.00 0.00 0.00 0.00 0.00 0.00 0.00 0.00 0.00 0.00 0.00 0.00 0.00 0.00 0.00 0.00 0.00 0.01 0.04 0.00 0.00 0.00 0.00 0.00 0.00 0.00 0.00 0.00 0.00 0.00 0.00 0.00 0.00 0.00 0.00 0.00 0.00 0.00 0.00
0.00 0.00 0.00 0.00 0.00 0.00 0.00 0.00 0.00 0.00 0.00 0.00 0.00 0.00 0.00 0.00 0.00 0.00 0.00 0.00 0.00 0.00 0.00 0.00 0.00 0.00 0.00 0.00 0.00 0.00 0.00 0.00 0.00 0.00 0.00 0.00 0.00 0.00 0.00 0.00 0.00 0.00 0.00

GFSSE_prec_precacc12_045.txt.gz
Total_Precipitation_Accumulation
0.03 0.29 0.22 0.09 0.02 0.01 0.01 0.00 0.01 0.00 0.01 0.00 0.00 0.00 0.00 0.00 0.01 0.02 0.01 0.00 0.00 0.00 0.00 0.01 0.00 0.00 0.00 0.00 0.00 0.00 0.00 0.01 0.04 0.03 0.05 0.02 0.02 0.03 0.01 0.03 0.01 0.01 0.05
0.00 0.13 0.14 0.10 0.03 0.01 0.01 0.01 0.01 0.01 0.01 0.01 0.01 0.01 0.02 0.02 0.07 0.03 0.01 0.01 0.02 0.02 0.03 0.02 0.01 0.00 0.00 0.00 0.00 0.00 0.00 0.00 0.02 0.02 0.04 0.03 0.08 0.12 0.10 0.07 0.01 0.02 0.04
0.00 0.05 0.04 0.09 0.04 0.01 0.02 0.02 0.01 0.00 0.01 0.02 0.05 0.05 0.03 0.05 0.07 0.06 0.02 0.01 0.02 0.04 0.05 0.02 0.02 0.00 0.01 0.02 0.03 0.02 0.02 0.05 0.05 0.02 0.01 0.00 0.03 0.24 0.20 0.08 0.07 0.09 0.05
0.00 0.03 0.01 0.05 0.03 0.02 0.04 0.01 0.01 0.01 0.06 0.09 0.06 0.03 0.03 0.15 0.08 0.04 0.04 0.05 0.06 0.07 0.13 0.17 0.12 0.01 0.01 0.06 0.15 0.25 0.11 0.02 0.00 0.00 0.00 0.00 0.07 0.26 0.04 0.04 0.06 0.05 0.02
0.00 0.02 0.00 0.02 0.02 0.02 0.01 0.01 0.02 0.01 0.01 0.02 0.03 0.07 0.08 0.12 0.10 0.07 0.08 0.02 0.01 0.01 0.02 0.02 0.01 0.00 0.05 0.19 0.16 0.14 0.17 0.02 0.00 0.00 0.01 0.05 0.07 0.04 0.04 0.03 0.05 0.02 0.03
0.01 0.00 0.01 0.02 0.01 0.01 0.01 0.03 0.01 0.01 0.02 0.05 0.05 0.04 0.08 0.08 0.03 0.01 0.00 0.00 0.00 0.01 0.00 0.00 0.00 0.00 0.01 0.10 0.16 0.18 0.18 0.10 0.02 0.00 0.00 0.04 0.07 0.08 0.04 0.02 0.02 0.03 0.06
0.00 0.00 0.01 0.05 0.01 0.01 0.01 0.01 0.01 0.02 0.05 0.05 0.02 0.03 0.02 0.01 0.00 0.00 0.00 0.00 0.00 0.00 0.00 0.00 0.00 0.01 0.07 0.17 0.17 0.24 0.23 0.07 0.00 0.00 0.00 0.02 0.05 0.08 0.04 0.03 0.02 0.04 0.04
0.00 0.00 0.02 0.02 0.01 0.03 0.01 0.02 0.01 0.02 0.02 0.03 0.05 0.03 0.02 0.01 0.00 0.00 0.00 0.00 0.00 0.00 0.00 0.02 0.05 0.05 0.02 0.16 0.16 0.22 0.25 0.03 0.00 0.00 0.03 0.04 0.02 0.01 0.05 0.03 0.02 0.05 0.04
0.00 0.00 0.01 0.01 0.03 0.03 0.04 0.03 0.01 0.02 0.02 0.02 0.01 0.01 0.00 0.00 0.00 0.00 0.01 0.00 0.00 0.00 0.00 0.01 0.02 0.03 0.06 0.08 0.12 0.05 0.22 0.02 0.00 0.00 0.00 0.00 0.01 0.01 0.04 0.01 0.04 0.03 0.06
0.00 0.00 0.00 0.00 0.01 0.01 0.03 0.03 0.02 0.02 0.03 0.01 0.00 0.00 0.00 0.00 0.04 0.03 0.02 0.02 0.00 0.00 0.00 0.02 0.03 0.03 0.05 0.08 0.11 0.04 0.15 0.11 0.02 0.01 0.00 0.01 0.06 0.04 0.02 0.03 0.04 0.03 0.03
0.01 0.00 0.00 0.00 0.00 0.00 0.01 0.02 0.06 0.03 0.00 0.00 0.00 0.00 0.00 0.00 0.02 0.02 0.05 0.02 0.00 0.01 0.03 0.04 0.01 0.03 0.02 0.03 0.08 0.15 0.07 0.10 0.11 0.00 0.00 0.01 0.08 0.02 0.01 0.02 0.02 0.02 0.02
0.00 0.01 0.00 0.00 0.00 0.00 0.00 0.00 0.01 0.00 0.00 0.00 0.00 0.00 0.00 0.00 0.00 0.01 0.06 0.08 0.03 0.05 0.06 0.05 0.04 0.02 0.01 0.00 0.01 0.08 0.03 0.04 0.08 0.00 0.01 0.03 0.04 0.00 0.01 0.01 0.01 0.01 0.02
0.00 0.00 0.00 0.00 0.00 0.00 0.00 0.00 0.00 0.00 0.00 0.00 0.00 0.00 0.00 0.00 0.00 0.00 0.00 0.04 0.01 0.00 0.00 0.00 0.02 0.00 0.00 0.00 0.00 0.00 0.00 0.01 0.03 0.00 0.01 0.01 0.02 0.00 0.01 0.02 0.02 0.01 0.01
0.00 0.00 0.00 0.00 0.00 0.00 0.00 0.00 0.00 0.00 0.00 0.00 0.00 0.00 0.00 0.00 0.00 0.00 0.00 0.01 0.00 0.00 0.01 0.02 0.01 0.01 0.00 0.00 0.00 0.00 0.00 0.00 0.00 0.00 0.00 0.02 0.09 0.02 0.01 0.01 0.02 0.01 0.00
0.00 0.00 0.00 0.00 0.00 0.00 0.00 0.00 0.00 0.00 0.00 0.00 0.00 0.00 0.00 0.01 0.01 0.01 0.01 0.01 0.01 0.01 0.04 0.03 0.00 0.00 0.00 0.00 0.00 0.00 0.00 0.00 0.00 0.00 0.00 0.03 0.07 0.17 0.04 0.00 0.01 0.00 0.00
0.00 0.00 0.00 0.00 0.00 0.00 0.00 0.00 0.00 0.00 0.00 0.00 0.00 0.00 0.00 0.02 0.10 0.14 0.11 0.04 0.03 0.03 0.03 0.01 0.01 0.00 0.00 0.00 0.00 0.00 0.00 0.00 0.00 0.00 0.00 0.03 0.05 0.10 0.11 0.02 0.00 0.00 0.00
0.00 0.00 0.00 0.00 0.00 0.00 0.00 0.00 0.00 0.00 0.00 0.00 0.00 0.00 0.00 0.01 0.07 0.06 0.10 0.12 0.06 0.03 0.00 0.03 0.00 0.00 0.00 0.00 0.00 0.00 0.00 0.00 0.00 0.00 0.00 0.02 0.03 0.05 0.13 0.22 0.07 0.01 0.02
0.00 0.00 0.00 0.00 0.00 0.00 0.00 0.00 0.00 0.00 0.00 0.00 0.00 0.00 0.00 0.00 0.03 0.06 0.05 0.03 0.02 0.05 0.04 0.05 0.01 0.00 0.00 0.00 0.00 0.00 0.00 0.00 0.00 0.00 0.00 0.00 0.00 0.00 0.04 0.14 0.25 0.13 0.15
0.00 0.00 0.00 0.00 0.00 0.00 0.00 0.00 0.00 0.00 0.00 0.00 0.00 0.00 0.00 0.00 0.01 0.04 0.10 0.08 0.02 0.03 0.04 0.02 0.04 0.01 0.00 0.00 0.00 0.00 0.00 0.00 0.00 0.00 0.00 0.00 0.00 0.00 0.00 0.06 0.11 0.15 0.17
0.00 0.00 0.00 0.00 0.00 0.00 0.00 0.00 0.00 0.00 0.00 0.00 0.00 0.00 0.00 0.00 0.00 0.02 0.11 0.13 0.07 0.07 0.06 0.06 0.02 0.00 0.00 0.00 0.00 0.00 0.00 0.00 0.00 0.00 0.00 0.00 0.00 0.00 0.00 0.00 0.02 0.03 0.03
0.00 0.00 0.00 0.00 0.00 0.00 0.00 0.00 0.00 0.00 0.00 0.00 0.00 0.00 0.00 0.00 0.00 0.00 0.03 0.10 0.07 0.06 0.03 0.04 0.00 0.00 0.00 0.00 0.00 0.00 0.00 0.00 0.00 0.00 0.00 0.00 0.00 0.00 0.00 0.00 0.00 0.00 0.00
0.00 0.00 0.00 0.00 0.00 0.00 0.00 0.00 0.00 0.00 0.00 0.00 0.00 0.00 0.00 0.00 0.00 0.00 0.00 0.05 0.08 0.03 0.07 0.01 0.00 0.00 0.00 0.00 0.00 0.00 0.00 0.00 0.00 0.00 0.00 0.00 0.00 0.00 0.00 0.00 0.00 0.00 0.00
0.00 0.00 0.00 0.00 0.00 0.00 0.00 0.00 0.00 0.00 0.00 0.00 0.00 0.00 0.00 0.00 0.00 0.00 0.01 0.01 0.02 0.08 0.08 0.04 0.00 0.00 0.00 0.00 0.00 0.00 0.00 0.00 0.00 0.00 0.00 0.00 0.00 0.00 0.00 0.00 0.00 0.00 0.00
0.00 0.00 0.00 0.00 0.00 0.00 0.00 0.00 0.00 0.00 0.00 0.00 0.00 0.00 0.00 0.00 0.00 0.00 0.00 0.03 0.08 0.05 0.08 0.01 0.00 0.00 0.00 0.00 0.00 0.00 0.00 0.00 0.00 0.00 0.00 0.00 0.00 0.00 0.00 0.00 0.00 0.00 0.00
0.00 0.00 0.00 0.00 0.00 0.00 0.00 0.00 0.00 0.00 0.00 0.00 0.00 0.00 0.00 0.00 0.00 0.00 0.00 0.03 0.06 0.05 0.09 0.02 0.02 0.00 0.00 0.00 0.00 0.00 0.00 0.00 0.00 0.00 0.00 0.00 0.00 0.00 0.00 0.00 0.00 0.00 0.00
0.00 0.00 0.00 0.00 0.00 0.00 0.00 0.00 0.00 0.00 0.00 0.00 0.00 0.00 0.00 0.00 0.00 0.00 0.00 0.00 0.01 0.00 0.00 0.00 0.03 0.01 0.00 0.00 0.00 0.00 0.00 0.00 0.00 0.00 0.00 0.00 0.00 0.00 0.00 0.00 0.00 0.00 0.00

GFSSE_prec_precacc12_048.txt.gz
Total_Precipitation_Accumulation
0.02 0.27 0.23 0.10 0.01 0.01 0.01 0.00 0.01 0.01 0.02 0.01 0.00 0.00 0.00 0.00 0.01 0.02 0.01 0.00 0.00 0.00 0.00 0.01 0.00 0.00 0.00 0.00 0.00 0.00 0.00 0.03 0.09 0.07 0.07 0.06 0.06 0.06 0.02 0.03 0.02 0.01 0.06
0.00 0.11 0.14 0.10 0.04 0.01 0.02 0.01 0.01 0.01 0.01 0.00 0.01 0.01 0.02 0.05 0.09 0.03 0.01 0.01 0.04 0.05 0.03 0.02 0.01 0.00 0.00 0.01 0.00 0.01 0.00 0.01 0.03 0.06 0.09 0.05 0.10 0.15 0.03 0.02 0.06 0.02 0.05
0.00 0.05 0.03 0.09 0.04 0.02 0.03 0.02 0.02 0.01 0.01 0.02 0.05 0.06 0.05 0.06 0.07 0.08 0.02 0.03 0.04 0.06 0.05 0.02 0.02 0.01 0.04 0.03 0.03 0.04 0.06 0.08 0.06 0.10 0.13 0.08 0.05 0.22 0.12 0.06 0.10 0.13 0.05
0.00 0.03 0.01 0.05 0.04 0.03 0.04 0.02 0.04 0.02 0.06 0.11 0.11 0.08 0.04 0.15 0.11 0.12 0.05 0.05 0.07 0.10 0.13 0.17 0.12 0.04 0.03 0.09 0.15 0.25 0.13 0.02 0.03 0.07 0.06 0.03 0.08 0.21 0.05 0.08 0.06 0.06 0.02
0.00 0.02 0.01 0.03 0.03 0.03 0.02 0.01 0.03 0.01 0.03 0.06 0.08 0.08 0.09 0.14 0.11 0.09 0.08 0.02 0.01 0.03 0.03 0.02 0.01 0.01 0.07 0.22 0.17 0.14 0.16 0.02 0.01 0.01 0.04 0.16 0.14 0.09 0.08 0.05 0.04 0.02 0.03
0.01 0.00 0.01 0.02 0.02 0.01 0.06 0.03 0.02 0.03 0.04 0.06 0.06 0.04 0.13 0.10 0.09 0.02 0.01 0.00 0.00 0.01 0.00 0.00 0.00 0.00 0.01 0.10 0.17 0.18 0.14 0.06 0.02 0.02 0.01 0.09 0.15 0.12 0.07 0.02 0.02 0.02 0.03
0.00 0.00 0.01 0.07 0.03 0.03 0.04 0.01 0.03 0.03 0.07 0.06 0.03 0.06 0.08 0.05 0.03 0.01 0.00 0.01 0.00 0.00 0.00 0.01 0.00 0.02 0.07 0.15 0.16 0.21 0.16 0.02 0.00 0.00 0.02 0.16 0.09 0.14 0.04 0.03 0.02 0.03 0.03
0.00 0.00 0.01 0.04 0.02 0.06 0.02 0.04 0.02 0.03 0.02 0.03 0.07 0.06 0.04 0.02 0.02 0.00 0.00 0.00 0.00 0.00 0.00 0.02 0.08 0.07 0.04 0.18 0.16 0.17 0.18 0.01 0.00 0.01 0.09 0.13 0.03 0.03 0.05 0.04 0.02 0.05 0.03
0.00 0.00 0.01 0.01 0.04 0.05 0.05 0.04 0.02 0.02 0.02 0.04 0.05 0.04 0.01 0.01 0.00 0.00 0.00 0.00 0.00 0.00 0.00 0.02 0.03 0.03 0.06 0.09 0.16 0.08 0.16 0.02 0.00 0.00 0.00 0.00 0.02 0.04 0.05 0.04 0.06 0.03 0.04
0.00 0.01 0.00 0.01 0.01 0.02 0.04 0.04 0.02 0.03 0.05 0.06 0.01 0.00 0.01 0.00 0.04 0.03 0.02 0.02 0.00 0.00 0.00 0.02 0.03 0.03 0.05 0.12 0.16 0.05 0.06 0.04 0.00 0.00 0.00 0.01 0.07 0.07 0.03 0.05 0.05 0.03 0.02
0.01 0.00 0.00 0.02 0.01 0.08 0.02 0.04 0.07 0.05 0.02 0.01 0.00 0.00 0.01 0.00 0.02 0.02 0.06 0.02 0.01 0.02 0.05 0.05 0.01 0.03 0.01 0.03 0.09 0.15 0.04 0.00 0.02 0.00 0.00 0.02 0.11 0.05 0.04 0.04 0.03 0.02 0.02
0.00 0.01 0.00 0.00 0.00 0.06 0.02 0.03 0.05 0.02 0.00 0.00 0.00 0.00 0.00 0.00 0.00 0.01 0.06 0.10 0.05 0.05 0.06 0.07 0.05 0.02 0.02 0.00 0.02 0.07 0.01 0.00 0.00 0.00 0.01 0.02 0.04 0.02 0.03 0.01 0.01 0.01 0.03
0.00 0.00 0.00 0.00 0.00 0.01 0.02 0.01 0.01 0.00 0.00 0.00 0.00 0.00 0.00 0.00 0.00 0.00 0.00 0.05 0.01 0.00 0.00 0.00 0.02 0.00 0.00 0.00 0.00 0.00 0.00 0.00 0.00 0.00 0.01 0.01 0.02 0.02 0.01 0.02 0.02 0.01 0.01
0.00 0.00 0.00 0.00 0.00 0.00 0.00 0.00 0.00 0.00 0.00 0.00 0.00 0.00 0.00 0.00 0.00 0.00 0.00 0.00 0.00 0.00 0.01 0.01 0.01 0.01 0.00 0.00 0.00 0.00 0.00 0.00 0.00 0.00 0.00 0.02 0.07 0.02 0.01 0.01 0.02 0.01 0.00
0.00 0.00 0.00 0.00 0.00 0.00 0.00 0.00 0.00 0.00 0.00 0.00 0.00 0.00 0.00 0.01 0.01 0.02 0.03 0.01 0.00 0.01 0.04 0.03 0.00 0.00 0.00 0.00 0.00 0.00 0.00 0.00 0.00 0.00 0.00 0.03 0.07 0.16 0.04 0.00 0.02 0.00 0.00
0.00 0.00 0.00 0.00 0.00 0.00 0.00 0.00 0.00 0.00 0.00 0.00 0.00 0.00 0.00 0.03 0.16 0.19 0.15 0.08 0.04 0.03 0.03 0.01 0.00 0.00 0.00 0.00 0.00 0.00 0.00 0.00 0.00 0.00 0.00 0.03 0.05 0.10 0.11 0.02 0.00 0.00 0.00
0.00 0.00 0.00 0.00 0.00 0.00 0.00 0.00 0.00 0.00 0.00 0.00 0.00 0.00 0.00 0.02 0.14 0.14 0.16 0.18 0.06 0.00 0.00 0.01 0.00 0.00 0.00 0.00 0.00 0.00 0.00 0.00 0.00 0.00 0.00 0.02 0.03 0.05 0.14 0.22 0.07 0.01 0.02
0.00 0.00 0.00 0.00 0.00 0.00 0.00 0.00 0.00 0.00 0.00 0.00 0.00 0.00 0.00 0.00 0.09 0.12 0.10 0.08 0.03 0.01 0.01 0.01 0.01 0.00 0.00 0.00 0.00 0.00 0.00 0.00 0.00 0.00 0.00 0.00 0.00 0.00 0.05 0.14 0.23 0.12 0.13
0.00 0.00 0.00 0.00 0.00 0.00 0.00 0.00 0.00 0.00 0.00 0.00 0.00 0.00 0.00 0.00 0.01 0.04 0.10 0.14 0.08 0.07 0.05 0.02 0.02 0.00 0.00 0.00 0.00 0.00 0.00 0.00 0.00 0.00 0.00 0.00 0.00 0.00 0.00 0.05 0.09 0.09 0.11
0.00 0.00 0.00 0.00 0.00 0.00 0.00 0.00 0.00 0.00 0.00 0.00 0.00 0.00 0.00 0.00 0.00 0.02 0.14 0.23 0.14 0.11 0.13 0.06 0.01 0.00 0.00 0.00 0.00 0.00 0.00 0.00 0.00 0.00 0.00 0.00 0.00 0.00 0.00 0.00 0.02 0.02 0.03
0.00 0.00 0.00 0.00 0.00 0.00 0.00 0.00 0.00 0.00 0.00 0.00 0.00 0.00 0.00 0.00 0.00 0.01 0.06 0.13 0.11 0.08 0.05 0.04 0.00 0.00 0.00 0.00 0.00 0.00 0.00 0.00 0.00 0.00 0.00 0.00 0.00 0.00 0.00 0.00 0.00 0.00 0.00
0.00 0.00 0.00 0.00 0.00 0.00 0.00 0.00 0.00 0.00 0.00 0.00 0.00 0.00 0.00 0.00 0.00 0.01 0.05 0.08 0.11 0.11 0.10 0.09 0.03 0.00 0.00 0.00 0.00 0.00 0.00 0.00 0.00 0.00 0.00 0.00 0.00 0.00 0.00 0.00 0.00 0.00 0.00
0.00 0.00 0.00 0.00 0.00 0.00 0.00 0.00 0.00 0.00 0.00 0.00 0.00 0.00 0.00 0.00 0.00 0.00 0.05 0.06 0.11 0.15 0.10 0.05 0.01 0.00 0.00 0.00 0.00 0.00 0.00 0.00 0.00 0.00 0.00 0.00 0.00 0.00 0.00 0.00 0.00 0.00 0.00
0.00 0.00 0.00 0.00 0.00 0.00 0.00 0.00 0.00 0.00 0.00 0.00 0.00 0.00 0.00 0.00 0.00 0.00 0.07 0.12 0.14 0.14 0.12 0.05 0.00 0.00 0.00 0.00 0.00 0.00 0.00 0.00 0.00 0.00 0.00 0.00 0.00 0.00 0.00 0.00 0.00 0.00 0.00
0.00 0.00 0.00 0.00 0.00 0.00 0.00 0.00 0.00 0.00 0.00 0.00 0.00 0.00 0.00 0.00 0.00 0.00 0.05 0.09 0.08 0.09 0.11 0.08 0.07 0.00 0.00 0.00 0.00 0.00 0.00 0.00 0.00 0.00 0.00 0.00 0.00 0.00 0.00 0.00 0.00 0.00 0.00
0.00 0.00 0.00 0.00 0.00 0.00 0.00 0.00 0.00 0.00 0.00 0.00 0.00 0.00 0.00 0.00 0.00 0.00 0.00 0.01 0.04 0.03 0.02 0.05 0.11 0.03 0.00 0.00 0.00 0.00 0.00 0.00 0.00 0.00 0.00 0.00 0.00 0.00 0.00 0.00 0.00 0.00 0.00